Time,TemperatureF,DewpointF,PressureIn,WindDirection,WindDirectionDegrees,WindSpeedMPH,WindSpeedGustMPH,Humidity,HourlyPrecipIn,Conditions,Clouds,dailyrainin,SoftwareType,DateUTC
2013-09-02 00:00:00,59.9,56.3,29.88,SSE,148,0.0,0.0,88,0.00,,BKN045,0.00,VWS V14.01,2013-09-02 07:00:00,
2013-09-02 00:01:00,59.9,56.3,29.88,SSE,148,0.0,0.0,88,0.00,,OVC080,0.00,VWS V14.01,2013-09-02 07:01:00,
2013-09-02 00:02:00,59.8,56.2,29.88,SSE,148,0.0,0.0,88,0.00,,BKN045,0.00,VWS V14.01,2013-09-02 07:02:00,
2013-09-02 00:03:00,59.8,56.2,29.88,SSE,148,0.0,0.0,88,0.00,,BKN045,0.00,VWS V14.01,2013-09-02 07:03:00,
2013-09-02 00:04:00,59.8,56.2,29.88,SSE,148,0.0,0.0,88,0.00,,BKN045,0.00,VWS V14.01,2013-09-02 07:04:00,
2013-09-02 00:05:00,59.8,56.2,29.88,SSE,148,0.0,0.0,88,0.00,,BKN045,0.00,VWS V14.01,2013-09-02 07:05:00,
2013-09-02 00:06:00,59.8,56.2,29.88,SSE,148,0.0,0.0,88,0.00,,OVC080,0.00,VWS V14.01,2013-09-02 07:06:00,
2013-09-02 00:07:00,59.7,56.2,29.88,SSE,148,0.0,0.0,88,0.00,,BKN045,0.00,VWS V14.01,2013-09-02 07:07:00,
2013-09-02 00:08:00,59.7,56.2,29.88,SSE,148,0.0,0.0,88,0.00,,BKN045,0.00,VWS V14.01,2013-09-02 07:08:00,
2013-09-02 00:09:00,59.7,56.2,29.88,SSE,148,0.0,0.0,88,0.00,,BKN045,0.00,VWS V14.01,2013-09-02 07:09:00,
2013-09-02 00:10:00,59.7,56.2,29.88,SSE,148,0.0,0.0,88,0.00,,BKN045,0.00,VWS V14.01,2013-09-02 07:10:00,
2013-09-02 00:11:00,59.7,56.2,29.88,SSE,148,0.0,0.0,88,0.00,,OVC080,0.00,VWS V14.01,2013-09-02 07:11:00,
2013-09-02 00:12:00,59.7,56.2,29.88,SSE,148,0.0,0.0,88,0.00,,BKN045,0.00,VWS V14.01,2013-09-02 07:12:00,
2013-09-02 00:13:00,59.7,56.2,29.88,SSE,148,0.0,0.0,88,0.00,,BKN045,0.00,VWS V14.01,2013-09-02 07:13:00,
2013-09-02 00:14:00,59.7,56.2,29.88,SSE,148,0.0,0.0,88,0.00,,BKN045,0.00,VWS V14.01,2013-09-02 07:14:00,
2013-09-02 00:15:00,59.7,56.2,29.88,SSE,148,0.0,0.0,88,0.00,,BKN045,0.00,VWS V14.01,2013-09-02 07:15:00,
2013-09-02 00:16:00,59.7,56.2,29.88,SSE,148,0.0,0.0,88,0.00,,OVC080,0.00,VWS V14.01,2013-09-02 07:16:00,
2013-09-02 00:17:00,59.8,56.2,29.88,SSE,158,0.0,0.0,88,0.00,,BKN045,0.00,VWS V14.01,2013-09-02 07:17:00,
2013-09-02 00:18:00,59.8,56.2,29.88,SSE,157,0.0,0.0,88,0.00,,BKN045,0.00,VWS V14.01,2013-09-02 07:18:00,
2013-09-02 00:19:00,59.8,56.2,29.88,SSE,158,0.0,0.0,88,0.00,,BKN045,0.00,VWS V14.01,2013-09-02 07:19:00,
2013-09-02 00:20:00,59.8,56.2,29.88,SSE,157,0.0,0.0,88,0.00,,BKN045,0.00,VWS V14.01,2013-09-02 07:20:00,
2013-09-02 00:21:00,59.8,56.2,29.88,SSE,157,0.0,0.0,88,0.00,,OVC080,0.00,VWS V14.01,2013-09-02 07:21:00,
2013-09-02 00:22:00,59.9,56.3,29.88,SSE,157,0.0,0.0,88,0.00,,BKN045,0.00,VWS V14.01,2013-09-02 07:22:00,
2013-09-02 00:23:00,59.9,56.3,29.88,SSE,157,0.0,0.0,88,0.00,,BKN045,0.00,VWS V14.01,2013-09-02 07:23:00,
2013-09-02 00:24:00,60.0,56.4,29.88,SW,221,2.0,0.0,88,0.00,,BKN045,0.00,VWS V14.01,2013-09-02 07:24:00,
2013-09-02 00:25:00,60.0,56.4,29.88,SW,221,0.0,0.0,88,0.00,,BKN045,0.00,VWS V14.01,2013-09-02 07:25:00,
2013-09-02 00:26:00,60.0,56.4,29.88,South,182,1.0,0.0,88,0.00,,OVC080,0.00,VWS V14.01,2013-09-02 07:26:00,
2013-09-02 00:27:00,60.1,56.5,29.88,SW,221,0.0,0.0,88,0.00,,BKN045,0.00,VWS V14.01,2013-09-02 07:27:00,
2013-09-02 00:28:00,60.1,56.5,29.88,SW,221,0.0,0.0,88,0.00,,BKN045,0.00,VWS V14.01,2013-09-02 07:28:00,
2013-09-02 00:29:00,60.1,56.5,29.88,SW,221,0.0,0.0,88,0.00,,BKN045,0.00,VWS V14.01,2013-09-02 07:29:00,
2013-09-02 00:30:00,60.1,56.5,29.88,SW,221,0.0,0.0,88,0.00,,BKN045,0.00,VWS V14.01,2013-09-02 07:30:00,
2013-09-02 00:31:00,60.1,56.5,29.88,SW,221,0.0,0.0,88,0.00,,OVC080,0.00,VWS V14.01,2013-09-02 07:31:00,
2013-09-02 00:32:00,60.1,56.5,29.88,SW,221,0.0,0.0,88,0.00,,BKN045,0.00,VWS V14.01,2013-09-02 07:32:00,
2013-09-02 00:33:00,60.1,56.5,29.88,SW,221,0.0,0.0,88,0.00,,BKN045,0.00,VWS V14.01,2013-09-02 07:33:00,
2013-09-02 00:34:00,60.2,56.6,29.88,SW,221,0.0,0.0,88,0.00,,BKN045,0.00,VWS V14.01,2013-09-02 07:34:00,
2013-09-02 00:35:00,60.2,56.6,29.88,SW,221,0.0,0.0,88,0.00,,BKN045,0.00,VWS V14.01,2013-09-02 07:35:00,
2013-09-02 00:36:00,60.2,56.6,29.88,SW,221,0.0,0.0,88,0.00,,OVC080,0.00,VWS V14.01,2013-09-02 07:36:00,
2013-09-02 00:37:00,60.2,56.6,29.88,SSW,192,0.0,0.0,88,0.00,,BKN045,0.00,VWS V14.01,2013-09-02 07:37:00,
2013-09-02 00:38:00,60.3,56.7,29.88,SSW,192,0.0,0.0,88,0.00,,BKN045,0.00,VWS V14.01,2013-09-02 07:38:00,
2013-09-02 00:39:00,60.3,56.7,29.88,SSW,192,0.0,0.0,88,0.00,,BKN045,0.00,VWS V14.01,2013-09-02 07:39:00,
2013-09-02 00:40:00,60.3,56.7,29.88,SSW,192,0.0,0.0,88,0.00,,BKN045,0.00,VWS V14.01,2013-09-02 07:40:00,
2013-09-02 00:41:00,60.3,56.7,29.88,SSW,192,0.0,0.0,88,0.00,,OVC080,0.00,VWS V14.01,2013-09-02 07:41:00,
2013-09-02 00:42:00,60.3,56.7,29.88,SSW,192,0.0,0.0,88,0.00,,BKN045,0.00,VWS V14.01,2013-09-02 07:42:00,
2013-09-02 00:43:00,60.4,56.8,29.88,SSW,192,0.0,0.0,88,0.00,,BKN045,0.00,VWS V14.01,2013-09-02 07:43:00,
2013-09-02 00:44:00,60.4,56.8,29.88,SSW,192,0.0,0.0,88,0.00,,BKN045,0.00,VWS V14.01,2013-09-02 07:44:00,
2013-09-02 00:45:00,60.4,56.8,29.88,SSW,192,0.0,0.0,88,0.00,,BKN045,0.00,VWS V14.01,2013-09-02 07:45:00,
2013-09-02 00:46:00,60.4,56.8,29.88,SSW,192,0.0,0.0,88,0.00,,OVC080,0.00,VWS V14.01,2013-09-02 07:46:00,
2013-09-02 00:47:00,60.4,56.8,29.88,SSW,192,0.0,0.0,88,0.00,,BKN045,0.00,VWS V14.01,2013-09-02 07:47:00,
2013-09-02 00:48:00,60.5,56.9,29.88,SSW,192,0.0,0.0,88,0.00,,BKN045,0.00,VWS V14.01,2013-09-02 07:48:00,
2013-09-02 00:49:00,60.5,56.9,29.88,SSW,192,0.0,0.0,88,0.00,,BKN045,0.00,VWS V14.01,2013-09-02 07:49:00,
2013-09-02 00:50:00,60.5,56.9,29.88,SSW,192,0.0,0.0,88,0.00,,BKN045,0.00,VWS V14.01,2013-09-02 07:50:00,
2013-09-02 00:51:00,60.5,56.9,29.88,SSW,192,0.0,0.0,88,0.00,,OVC080,0.00,VWS V14.01,2013-09-02 07:51:00,
2013-09-02 00:52:00,60.5,56.9,29.88,SSW,192,0.0,0.0,88,0.00,,BKN045,0.00,VWS V14.01,2013-09-02 07:52:00,
2013-09-02 00:53:00,60.5,56.9,29.88,SSW,192,0.0,0.0,88,0.00,,BKN045,0.00,VWS V14.01,2013-09-02 07:53:00,
2013-09-02 00:54:00,60.5,56.9,29.88,SSW,192,0.0,0.0,88,0.00,,BKN045,0.00,VWS V14.01,2013-09-02 07:54:00,
2013-09-02 00:55:00,60.5,56.9,29.88,SSW,192,0.0,0.0,88,0.00,,BKN045,0.00,VWS V14.01,2013-09-02 07:55:00,
2013-09-02 00:56:00,60.4,56.8,29.88,SSW,192,0.0,0.0,88,0.00,,OVC080,0.00,VWS V14.01,2013-09-02 07:56:00,
2013-09-02 00:57:00,60.4,56.8,29.88,SSW,192,0.0,0.0,88,0.00,,BKN045,0.00,VWS V14.01,2013-09-02 07:57:00,
2013-09-02 00:58:00,60.4,56.8,29.88,SSW,192,0.0,0.0,88,0.00,,BKN045,0.00,VWS V14.01,2013-09-02 07:58:00,
2013-09-02 00:59:00,60.4,56.8,29.88,SSW,192,0.0,0.0,88,0.00,,BKN045,0.00,VWS V14.01,2013-09-02 07:59:00,
2013-09-02 01:00:00,60.4,56.8,29.88,SSW,192,0.0,0.0,88,0.00,,BKN045,0.00,VWS V14.01,2013-09-02 08:00:00,
2013-09-02 01:01:00,60.4,56.8,29.88,SSW,192,0.0,0.0,88,0.00,,OVC080,0.00,VWS V14.01,2013-09-02 08:01:00,
2013-09-02 01:02:00,60.4,56.8,29.88,SSW,192,0.0,0.0,88,0.00,,BKN045,0.00,VWS V14.01,2013-09-02 08:02:00,
2013-09-02 01:03:00,60.4,56.8,29.87,SSW,192,0.0,0.0,88,0.00,,BKN045,0.00,VWS V14.01,2013-09-02 08:03:00,
2013-09-02 01:04:00,60.3,56.7,29.87,SSW,192,0.0,0.0,88,0.00,,BKN045,0.00,VWS V14.01,2013-09-02 08:04:00,
2013-09-02 01:05:00,60.3,56.7,29.87,SSW,192,0.0,0.0,88,0.00,,BKN045,0.00,VWS V14.01,2013-09-02 08:05:00,
2013-09-02 01:06:00,60.4,56.8,29.87,SSW,192,0.0,0.0,88,0.00,,BKN080,0.00,VWS V14.01,2013-09-02 08:06:00,
2013-09-02 01:07:00,60.3,56.7,29.87,SSW,192,0.0,0.0,88,0.00,,BKN045,0.00,VWS V14.01,2013-09-02 08:07:00,
2013-09-02 01:08:00,60.3,56.7,29.87,SSW,192,0.0,0.0,88,0.00,,BKN045,0.00,VWS V14.01,2013-09-02 08:08:00,
2013-09-02 01:09:00,60.2,56.6,29.88,SSW,192,0.0,0.0,88,0.00,,BKN045,0.00,VWS V14.01,2013-09-02 08:09:00,
2013-09-02 01:10:00,60.2,57.0,29.88,SSW,192,0.0,0.0,89,0.00,,BKN045,0.00,VWS V14.01,2013-09-02 08:10:00,
2013-09-02 01:11:00,60.2,56.6,29.88,SSW,192,0.0,0.0,88,0.00,,BKN080,0.00,VWS V14.01,2013-09-02 08:11:00,
2013-09-02 01:12:00,60.3,57.0,29.88,ESE,119,1.0,0.0,89,0.00,,BKN045,0.00,VWS V14.01,2013-09-02 08:12:00,
2013-09-02 01:13:00,60.3,57.0,29.88,ESE,119,0.0,0.0,89,0.00,,BKN045,0.00,VWS V14.01,2013-09-02 08:13:00,
2013-09-02 01:14:00,60.3,57.0,29.88,ESE,118,0.0,0.0,89,0.00,,BKN045,0.00,VWS V14.01,2013-09-02 08:14:00,
2013-09-02 01:15:00,60.3,57.0,29.88,ESE,119,0.0,0.0,89,0.00,,BKN045,0.00,VWS V14.01,2013-09-02 08:15:00,
2013-09-02 01:16:00,60.3,57.0,29.88,ESE,119,0.0,0.0,89,0.00,,BKN080,0.00,VWS V14.01,2013-09-02 08:16:00,
2013-09-02 01:17:00,60.3,56.7,29.88,ESE,118,0.0,0.0,88,0.00,,BKN045,0.00,VWS V14.01,2013-09-02 08:17:00,
2013-09-02 01:18:00,60.3,56.7,29.88,ESE,119,0.0,0.0,88,0.00,,BKN045,0.00,VWS V14.01,2013-09-02 08:18:00,
2013-09-02 01:19:00,60.3,56.7,29.88,ESE,119,0.0,0.0,88,0.00,,BKN045,0.00,VWS V14.01,2013-09-02 08:19:00,
2013-09-02 01:20:00,60.3,56.7,29.88,ESE,119,0.0,0.0,88,0.00,,BKN045,0.00,VWS V14.01,2013-09-02 08:20:00,
2013-09-02 01:21:00,60.3,56.7,29.88,ESE,118,0.0,0.0,88,0.00,,BKN080,0.00,VWS V14.01,2013-09-02 08:21:00,
2013-09-02 01:22:00,60.2,56.6,29.88,ESE,118,0.0,0.0,88,0.00,,BKN045,0.00,VWS V14.01,2013-09-02 08:22:00,
2013-09-02 01:23:00,60.2,56.6,29.88,ESE,119,0.0,0.0,88,0.00,,BKN045,0.00,VWS V14.01,2013-09-02 08:23:00,
2013-09-02 01:24:00,60.2,57.0,29.88,ESE,119,0.0,0.0,89,0.00,,BKN045,0.00,VWS V14.01,2013-09-02 08:24:00,
2013-09-02 01:25:00,60.1,56.8,29.88,ESE,119,0.0,0.0,89,0.00,,BKN045,0.00,VWS V14.01,2013-09-02 08:25:00,
2013-09-02 01:26:00,60.2,57.0,29.88,ESE,119,0.0,0.0,89,0.00,,FEW080,0.00,VWS V14.01,2013-09-02 08:26:00,
2013-09-02 01:27:00,60.1,56.8,29.88,ESE,119,0.0,0.0,89,0.00,,BKN045,0.00,VWS V14.01,2013-09-02 08:27:00,
2013-09-02 01:28:00,60.1,56.8,29.88,ESE,118,0.0,0.0,89,0.00,,BKN045,0.00,VWS V14.01,2013-09-02 08:28:00,
2013-09-02 01:29:00,60.1,56.8,29.88,ESE,118,0.0,0.0,89,0.00,,BKN045,0.00,VWS V14.01,2013-09-02 08:29:00,
2013-09-02 01:30:00,60.0,56.8,29.88,ESE,119,0.0,0.0,89,0.00,,BKN045,0.00,VWS V14.01,2013-09-02 08:30:00,
2013-09-02 01:31:00,60.1,56.8,29.88,ESE,118,0.0,0.0,89,0.00,,FEW080,0.00,VWS V14.01,2013-09-02 08:31:00,
2013-09-02 01:32:00,60.0,56.8,29.88,ESE,118,0.0,0.0,89,0.00,,BKN045,0.00,VWS V14.01,2013-09-02 08:32:00,
2013-09-02 01:33:00,60.0,56.8,29.88,ESE,119,0.0,0.0,89,0.00,,BKN045,0.00,VWS V14.01,2013-09-02 08:33:00,
2013-09-02 01:34:00,60.0,56.8,29.88,ESE,119,0.0,0.0,89,0.00,,BKN045,0.00,VWS V14.01,2013-09-02 08:34:00,
2013-09-02 01:35:00,60.0,56.8,29.88,ESE,119,0.0,0.0,89,0.00,,BKN045,0.00,VWS V14.01,2013-09-02 08:35:00,
2013-09-02 01:36:00,60.0,56.8,29.88,ESE,119,0.0,0.0,89,0.00,,FEW080,0.00,VWS V14.01,2013-09-02 08:36:00,
2013-09-02 01:37:00,60.0,56.8,29.88,ESE,119,0.0,0.0,89,0.00,,BKN045,0.00,VWS V14.01,2013-09-02 08:37:00,
2013-09-02 01:38:00,60.0,56.8,29.88,ESE,118,1.0,0.0,89,0.00,,BKN045,0.00,VWS V14.01,2013-09-02 08:38:00,
2013-09-02 01:39:00,59.9,56.7,29.88,ESE,119,0.0,0.0,89,0.00,,BKN045,0.00,VWS V14.01,2013-09-02 08:39:00,
2013-09-02 01:40:00,59.9,56.7,29.88,ESE,119,0.0,0.0,89,0.00,,BKN045,0.00,VWS V14.01,2013-09-02 08:40:00,
2013-09-02 01:41:00,59.9,56.7,29.88,ESE,119,0.0,0.0,89,0.00,,FEW080,0.00,VWS V14.01,2013-09-02 08:41:00,
2013-09-02 01:42:00,59.9,56.7,29.88,ESE,118,0.0,0.0,89,0.00,,BKN045,0.00,VWS V14.01,2013-09-02 08:42:00,
2013-09-02 01:43:00,59.9,56.7,29.88,ESE,118,0.0,0.0,89,0.00,,BKN045,0.00,VWS V14.01,2013-09-02 08:43:00,
2013-09-02 01:44:00,59.8,56.6,29.88,ESE,119,0.0,0.0,89,0.00,,BKN045,0.00,VWS V14.01,2013-09-02 08:44:00,
2013-09-02 01:45:00,59.8,56.6,29.88,ESE,118,0.0,0.0,89,0.00,,BKN045,0.00,VWS V14.01,2013-09-02 08:45:00,
2013-09-02 01:46:00,59.9,56.7,29.88,ESE,119,1.0,0.0,89,0.00,,FEW080,0.00,VWS V14.01,2013-09-02 08:46:00,
2013-09-02 01:47:00,59.7,56.5,29.89,ESE,119,0.0,0.0,89,0.00,,BKN045,0.00,VWS V14.01,2013-09-02 08:47:00,
2013-09-02 01:48:00,59.7,56.5,29.89,ESE,118,0.0,0.0,89,0.00,,BKN045,0.00,VWS V14.01,2013-09-02 08:48:00,
2013-09-02 01:49:00,59.7,56.5,29.89,ESE,119,0.0,0.0,89,0.00,,BKN045,0.00,VWS V14.01,2013-09-02 08:49:00,
2013-09-02 01:50:00,59.6,56.4,29.88,ESE,118,0.0,0.0,89,0.00,,BKN045,0.00,VWS V14.01,2013-09-02 08:50:00,
2013-09-02 01:51:00,59.7,56.5,29.89,ESE,119,0.0,0.0,89,0.00,,FEW080,0.00,VWS V14.01,2013-09-02 08:51:00,
2013-09-02 01:52:00,59.6,56.7,29.88,ESE,118,0.0,0.0,90,0.00,,BKN045,0.00,VWS V14.01,2013-09-02 08:52:00,
2013-09-02 01:53:00,59.5,56.6,29.88,ESE,119,0.0,0.0,90,0.00,,BKN045,0.00,VWS V14.01,2013-09-02 08:53:00,
2013-09-02 01:54:00,59.5,56.6,29.88,ESE,119,0.0,0.0,90,0.00,,BKN045,0.00,VWS V14.01,2013-09-02 08:54:00,
2013-09-02 01:55:00,59.5,56.6,29.88,ESE,119,0.0,0.0,90,0.00,,BKN045,0.00,VWS V14.01,2013-09-02 08:55:00,
2013-09-02 01:56:00,59.5,56.6,29.88,ESE,119,0.0,0.0,90,0.00,,FEW080,0.00,VWS V14.01,2013-09-02 08:56:00,
2013-09-02 01:57:00,59.4,56.5,29.88,ESE,119,0.0,0.0,90,0.00,,BKN045,0.00,VWS V14.01,2013-09-02 08:57:00,
2013-09-02 01:58:00,59.4,56.5,29.88,ESE,119,0.0,0.0,90,0.00,,BKN045,0.00,VWS V14.01,2013-09-02 08:58:00,
2013-09-02 01:59:00,59.3,56.4,29.88,ESE,119,0.0,0.0,90,0.00,,BKN045,0.00,VWS V14.01,2013-09-02 08:59:00,
2013-09-02 02:00:00,59.3,56.4,29.88,ESE,119,0.0,0.0,90,0.00,,BKN045,0.00,VWS V14.01,2013-09-02 09:00:00,
2013-09-02 02:01:00,59.3,56.4,29.88,ESE,119,0.0,0.0,90,0.00,,FEW080,0.00,VWS V14.01,2013-09-02 09:01:00,
2013-09-02 02:02:00,59.2,56.3,29.88,ESE,119,0.0,0.0,90,0.00,,BKN045,0.00,VWS V14.01,2013-09-02 09:02:00,
2013-09-02 02:03:00,59.3,56.4,29.88,ESE,119,0.0,0.0,90,0.00,,BKN045,0.00,VWS V14.01,2013-09-02 09:03:00,
2013-09-02 02:04:00,59.3,56.4,29.88,ESE,119,0.0,0.0,90,0.00,,BKN045,0.00,VWS V14.01,2013-09-02 09:04:00,
2013-09-02 02:05:00,59.3,56.4,29.88,ESE,118,0.0,0.0,90,0.00,,BKN045,0.00,VWS V14.01,2013-09-02 09:05:00,
2013-09-02 02:06:00,59.3,56.4,29.88,ESE,119,0.0,0.0,90,0.00,,CLR,0.00,VWS V14.01,2013-09-02 09:06:00,
2013-09-02 02:07:00,59.3,56.4,29.88,ESE,119,0.0,0.0,90,0.00,,BKN045,0.00,VWS V14.01,2013-09-02 09:07:00,
2013-09-02 02:08:00,59.3,56.4,29.88,ESE,119,0.0,0.0,90,0.00,,BKN045,0.00,VWS V14.01,2013-09-02 09:08:00,
2013-09-02 02:09:00,59.3,56.4,29.88,ESE,118,0.0,0.0,90,0.00,,BKN045,0.00,VWS V14.01,2013-09-02 09:09:00,
2013-09-02 02:10:00,59.3,56.4,29.88,ESE,118,0.0,0.0,90,0.00,,BKN045,0.00,VWS V14.01,2013-09-02 09:10:00,
2013-09-02 02:11:00,59.3,56.4,29.88,ESE,119,0.0,0.0,90,0.00,,CLR,0.00,VWS V14.01,2013-09-02 09:11:00,
2013-09-02 02:12:00,59.3,56.4,29.88,ESE,118,0.0,0.0,90,0.00,,BKN045,0.00,VWS V14.01,2013-09-02 09:12:00,
2013-09-02 02:13:00,59.2,56.3,29.88,ESE,119,0.0,0.0,90,0.00,,BKN045,0.00,VWS V14.01,2013-09-02 09:13:00,
2013-09-02 02:14:00,59.2,56.3,29.88,ESE,118,0.0,0.0,90,0.00,,BKN045,0.00,VWS V14.01,2013-09-02 09:14:00,
2013-09-02 02:15:00,59.1,56.2,29.88,ESE,119,0.0,0.0,90,0.00,,BKN045,0.00,VWS V14.01,2013-09-02 09:15:00,
2013-09-02 02:16:00,59.2,56.3,29.88,ESE,119,0.0,0.0,90,0.00,,CLR,0.00,VWS V14.01,2013-09-02 09:16:00,
2013-09-02 02:17:00,59.1,56.2,29.88,ESE,119,0.0,0.0,90,0.00,,BKN045,0.00,VWS V14.01,2013-09-02 09:17:00,
2013-09-02 02:18:00,59.1,56.2,29.88,ESE,118,0.0,0.0,90,0.00,,BKN045,0.00,VWS V14.01,2013-09-02 09:18:00,
2013-09-02 02:19:00,59.1,56.2,29.88,ESE,119,0.0,0.0,90,0.00,,BKN045,0.00,VWS V14.01,2013-09-02 09:19:00,
2013-09-02 02:20:00,59.1,56.2,29.88,ESE,119,0.0,0.0,90,0.00,,BKN045,0.00,VWS V14.01,2013-09-02 09:20:00,
2013-09-02 02:21:00,59.1,56.2,29.88,ESE,119,0.0,0.0,90,0.00,,CLR,0.00,VWS V14.01,2013-09-02 09:21:00,
2013-09-02 02:22:00,59.0,56.4,29.88,ESE,119,0.0,0.0,91,0.00,,BKN045,0.00,VWS V14.01,2013-09-02 09:22:00,
2013-09-02 02:23:00,59.0,56.4,29.88,ESE,119,0.0,0.0,91,0.00,,BKN045,0.00,VWS V14.01,2013-09-02 09:23:00,
2013-09-02 02:24:00,59.1,56.5,29.88,ESE,119,0.0,0.0,91,0.00,,BKN045,0.00,VWS V14.01,2013-09-02 09:24:00,
2013-09-02 02:25:00,59.1,56.5,29.88,ESE,118,0.0,0.0,91,0.00,,BKN045,0.00,VWS V14.01,2013-09-02 09:25:00,
2013-09-02 02:26:00,59.0,56.4,29.88,ESE,119,0.0,0.0,91,0.00,,SCT080,0.00,VWS V14.01,2013-09-02 09:26:00,
2013-09-02 02:27:00,59.0,56.4,29.88,ESE,119,0.0,0.0,91,0.00,,BKN045,0.00,VWS V14.01,2013-09-02 09:27:00,
2013-09-02 02:28:00,59.0,56.4,29.88,ESE,119,0.0,0.0,91,0.00,,BKN045,0.00,VWS V14.01,2013-09-02 09:28:00,
2013-09-02 02:29:00,59.0,56.4,29.89,ESE,119,0.0,0.0,91,0.00,,BKN045,0.00,VWS V14.01,2013-09-02 09:29:00,
2013-09-02 02:30:00,59.0,56.4,29.88,ESE,118,0.0,0.0,91,0.00,,BKN045,0.00,VWS V14.01,2013-09-02 09:30:00,
2013-09-02 02:31:00,59.0,56.4,29.89,ESE,118,0.0,0.0,91,0.00,,SCT080,0.00,VWS V14.01,2013-09-02 09:31:00,
2013-09-02 02:32:00,59.0,56.4,29.88,ESE,119,0.0,0.0,91,0.00,,BKN045,0.00,VWS V14.01,2013-09-02 09:32:00,
2013-09-02 02:33:00,59.0,56.4,29.88,ESE,118,0.0,0.0,91,0.00,,BKN045,0.00,VWS V14.01,2013-09-02 09:33:00,
2013-09-02 02:34:00,59.0,56.4,29.88,ESE,119,0.0,0.0,91,0.00,,BKN045,0.00,VWS V14.01,2013-09-02 09:34:00,
2013-09-02 02:35:00,59.0,56.4,29.88,ESE,119,0.0,0.0,91,0.00,,BKN045,0.00,VWS V14.01,2013-09-02 09:35:00,
2013-09-02 02:36:00,59.0,56.4,29.88,ESE,119,0.0,0.0,91,0.00,,SCT080,0.00,VWS V14.01,2013-09-02 09:36:00,
2013-09-02 02:37:00,59.0,56.4,29.88,ESE,119,0.0,0.0,91,0.00,,BKN045,0.00,VWS V14.01,2013-09-02 09:37:00,
2013-09-02 02:38:00,59.0,56.4,29.88,ESE,119,0.0,0.0,91,0.00,,BKN045,0.00,VWS V14.01,2013-09-02 09:38:00,
2013-09-02 02:39:00,59.0,56.4,29.88,ESE,118,0.0,0.0,91,0.00,,BKN045,0.00,VWS V14.01,2013-09-02 09:39:00,
2013-09-02 02:40:00,59.0,56.4,29.88,ESE,118,0.0,0.0,91,0.00,,BKN045,0.00,VWS V14.01,2013-09-02 09:40:00,
2013-09-02 02:41:00,59.0,56.4,29.88,ESE,119,0.0,0.0,91,0.00,,SCT080,0.00,VWS V14.01,2013-09-02 09:41:00,
2013-09-02 02:42:00,58.9,56.3,29.88,ESE,119,0.0,0.0,91,0.00,,BKN045,0.00,VWS V14.01,2013-09-02 09:42:00,
2013-09-02 02:43:00,58.9,56.3,29.88,ESE,119,0.0,0.0,91,0.00,,BKN045,0.00,VWS V14.01,2013-09-02 09:43:00,
2013-09-02 02:44:00,58.9,56.3,29.88,ESE,119,0.0,0.0,91,0.00,,BKN045,0.00,VWS V14.01,2013-09-02 09:44:00,
2013-09-02 02:45:00,58.9,56.3,29.88,ESE,119,0.0,0.0,91,0.00,,BKN045,0.00,VWS V14.01,2013-09-02 09:45:00,
2013-09-02 02:46:00,58.9,56.3,29.88,ESE,118,0.0,0.0,91,0.00,,BKN120,0.00,VWS V14.01,2013-09-02 09:46:00,
2013-09-02 02:47:00,58.9,56.3,29.88,ESE,118,0.0,0.0,91,0.00,,BKN045,0.00,VWS V14.01,2013-09-02 09:47:00,
2013-09-02 02:48:00,58.9,56.3,29.88,ESE,118,0.0,0.0,91,0.00,,BKN045,0.00,VWS V14.01,2013-09-02 09:48:00,
2013-09-02 02:49:00,58.9,56.3,29.88,ESE,119,0.0,0.0,91,0.00,,BKN045,0.00,VWS V14.01,2013-09-02 09:49:00,
2013-09-02 02:50:00,58.9,56.3,29.89,ESE,118,0.0,0.0,91,0.00,,BKN045,0.00,VWS V14.01,2013-09-02 09:50:00,
2013-09-02 02:51:00,58.9,56.3,29.88,ESE,119,0.0,0.0,91,0.00,,BKN120,0.00,VWS V14.01,2013-09-02 09:51:00,
2013-09-02 02:52:00,58.8,56.2,29.89,ESE,118,0.0,0.0,91,0.00,,BKN045,0.00,VWS V14.01,2013-09-02 09:52:00,
2013-09-02 02:53:00,58.8,56.2,29.88,ESE,118,0.0,0.0,91,0.00,,BKN045,0.00,VWS V14.01,2013-09-02 09:53:00,
2013-09-02 02:54:00,58.8,56.2,29.88,ESE,118,0.0,0.0,91,0.00,,BKN045,0.00,VWS V14.01,2013-09-02 09:54:00,
2013-09-02 02:55:00,58.8,56.2,29.88,ESE,119,0.0,0.0,91,0.00,,BKN045,0.00,VWS V14.01,2013-09-02 09:55:00,
2013-09-02 02:56:00,58.8,56.2,29.88,ESE,119,0.0,0.0,91,0.00,,BKN120,0.00,VWS V14.01,2013-09-02 09:56:00,
2013-09-02 02:57:00,58.8,56.2,29.88,ESE,119,0.0,0.0,91,0.00,,BKN045,0.00,VWS V14.01,2013-09-02 09:57:00,
2013-09-02 02:58:00,58.8,56.2,29.88,ESE,118,0.0,0.0,91,0.00,,BKN045,0.00,VWS V14.01,2013-09-02 09:58:00,
2013-09-02 02:59:00,58.7,56.1,29.88,ESE,119,0.0,0.0,91,0.00,,BKN045,0.00,VWS V14.01,2013-09-02 09:59:00,
2013-09-02 03:00:00,58.7,56.1,29.88,ESE,119,0.0,0.0,91,0.00,,BKN045,0.00,VWS V14.01,2013-09-02 10:00:00,
2013-09-02 03:01:00,58.7,56.1,29.88,ESE,119,0.0,0.0,91,0.00,,BKN120,0.00,VWS V14.01,2013-09-02 10:01:00,
2013-09-02 03:02:00,58.8,56.5,29.88,ESE,118,0.0,0.0,92,0.00,,BKN045,0.00,VWS V14.01,2013-09-02 10:02:00,
2013-09-02 03:03:00,58.8,56.5,29.88,ESE,118,0.0,0.0,92,0.00,,BKN045,0.00,VWS V14.01,2013-09-02 10:03:00,
2013-09-02 03:04:00,58.8,56.2,29.88,ESE,119,0.0,0.0,91,0.00,,BKN045,0.00,VWS V14.01,2013-09-02 10:04:00,
2013-09-02 03:05:00,58.8,56.2,29.88,ESE,119,0.0,0.0,91,0.00,,BKN045,0.00,VWS V14.01,2013-09-02 10:05:00,
2013-09-02 03:06:00,58.8,56.5,29.88,ESE,119,0.0,0.0,92,0.00,,BKN120,0.00,VWS V14.01,2013-09-02 10:06:00,
2013-09-02 03:07:00,58.8,56.2,29.88,ESE,118,0.0,0.0,91,0.00,,BKN045,0.00,VWS V14.01,2013-09-02 10:07:00,
2013-09-02 03:08:00,58.7,56.1,29.88,ESE,119,0.0,0.0,91,0.00,,BKN045,0.00,VWS V14.01,2013-09-02 10:08:00,
2013-09-02 03:09:00,58.7,56.1,29.89,ESE,119,0.0,0.0,91,0.00,,BKN045,0.00,VWS V14.01,2013-09-02 10:09:00,
2013-09-02 03:10:00,58.8,56.2,29.89,ESE,119,0.0,0.0,91,0.00,,BKN120,0.00,VWS V14.01,2013-09-02 10:10:00,
2013-09-02 03:11:00,58.7,56.1,29.89,ESE,119,0.0,0.0,91,0.00,,BKN045,0.00,VWS V14.01,2013-09-02 10:11:00,
2013-09-02 03:12:00,58.7,56.1,29.89,ESE,119,0.0,0.0,91,0.00,,BKN045,0.00,VWS V14.01,2013-09-02 10:12:00,
2013-09-02 03:13:00,58.7,56.1,29.89,ESE,118,0.0,0.0,91,0.00,,BKN045,0.00,VWS V14.01,2013-09-02 10:13:00,
2013-09-02 03:14:00,58.7,56.4,29.89,ESE,119,0.0,0.0,92,0.00,,BKN045,0.00,VWS V14.01,2013-09-02 10:14:00,
2013-09-02 03:15:00,58.7,56.1,29.89,ESE,119,0.0,0.0,91,0.00,,BKN120,0.00,VWS V14.01,2013-09-02 10:15:00,
2013-09-02 03:16:00,58.8,56.5,29.89,ESE,118,0.0,0.0,92,0.00,,BKN045,0.00,VWS V14.01,2013-09-02 10:16:00,
2013-09-02 03:17:00,58.8,56.5,29.89,ESE,119,0.0,0.0,92,0.00,,BKN045,0.00,VWS V14.01,2013-09-02 10:17:00,
2013-09-02 03:18:00,58.8,56.5,29.89,ESE,119,0.0,0.0,92,0.00,,BKN045,0.00,VWS V14.01,2013-09-02 10:18:00,
2013-09-02 03:19:00,58.8,56.5,29.89,ESE,119,0.0,0.0,92,0.00,,BKN045,0.00,VWS V14.01,2013-09-02 10:19:00,
2013-09-02 03:20:00,58.8,56.5,29.89,ESE,118,0.0,0.0,92,0.00,,BKN120,0.00,VWS V14.01,2013-09-02 10:20:00,
2013-09-02 03:21:00,58.8,56.5,29.89,ESE,118,0.0,0.0,92,0.00,,BKN045,0.00,VWS V14.01,2013-09-02 10:21:00,
2013-09-02 03:22:00,58.8,56.5,29.89,ESE,119,0.0,0.0,92,0.00,,BKN045,0.00,VWS V14.01,2013-09-02 10:22:00,
2013-09-02 03:23:00,58.8,56.5,29.89,ESE,119,0.0,0.0,92,0.00,,BKN045,0.00,VWS V14.01,2013-09-02 10:23:00,
2013-09-02 03:24:00,58.8,56.5,29.89,ESE,118,0.0,0.0,92,0.00,,BKN045,0.00,VWS V14.01,2013-09-02 10:24:00,
2013-09-02 03:25:00,58.8,56.5,29.89,ESE,119,0.0,0.0,92,0.00,,BKN120,0.00,VWS V14.01,2013-09-02 10:25:00,
2013-09-02 03:26:00,58.8,56.5,29.89,ESE,119,0.0,0.0,92,0.00,,BKN045,0.00,VWS V14.01,2013-09-02 10:26:00,
2013-09-02 03:27:00,58.8,56.5,29.89,ESE,119,0.0,0.0,92,0.00,,BKN045,0.00,VWS V14.01,2013-09-02 10:27:00,
2013-09-02 03:28:00,58.9,56.6,29.89,ESE,119,0.0,0.0,92,0.00,,BKN045,0.00,VWS V14.01,2013-09-02 10:28:00,
2013-09-02 03:29:00,58.9,56.6,29.89,ESE,119,0.0,0.0,92,0.00,,BKN045,0.00,VWS V14.01,2013-09-02 10:29:00,
2013-09-02 03:30:00,58.9,56.6,29.89,ESE,118,0.0,0.0,92,0.00,,BKN120,0.00,VWS V14.01,2013-09-02 10:30:00,
2013-09-02 03:31:00,58.9,56.6,29.89,ESE,119,0.0,0.0,92,0.00,,BKN045,0.00,VWS V14.01,2013-09-02 10:31:00,
2013-09-02 03:32:00,58.9,56.6,29.89,ESE,118,0.0,0.0,92,0.00,,BKN045,0.00,VWS V14.01,2013-09-02 10:32:00,
2013-09-02 03:33:00,58.9,56.6,29.88,ESE,119,0.0,0.0,92,0.00,,BKN045,0.00,VWS V14.01,2013-09-02 10:33:00,
2013-09-02 03:34:00,59.0,56.7,29.88,ESE,118,0.0,0.0,92,0.00,,BKN045,0.00,VWS V14.01,2013-09-02 10:34:00,
2013-09-02 03:35:00,58.9,56.6,29.88,ESE,119,0.0,0.0,92,0.00,,BKN120,0.00,VWS V14.01,2013-09-02 10:35:00,
2013-09-02 03:36:00,59.0,56.7,29.88,ESE,119,0.0,0.0,92,0.00,,BKN045,0.00,VWS V14.01,2013-09-02 10:36:00,
2013-09-02 03:37:00,59.0,56.7,29.89,ESE,119,0.0,0.0,92,0.00,,BKN045,0.00,VWS V14.01,2013-09-02 10:37:00,
2013-09-02 03:38:00,59.0,56.7,29.88,ESE,119,0.0,0.0,92,0.00,,BKN045,0.00,VWS V14.01,2013-09-02 10:38:00,
2013-09-02 03:39:00,59.1,56.8,29.89,ESE,119,0.0,0.0,92,0.00,,BKN045,0.00,VWS V14.01,2013-09-02 10:39:00,
2013-09-02 03:40:00,59.0,56.7,29.89,ESE,119,0.0,0.0,92,0.00,,BKN120,0.00,VWS V14.01,2013-09-02 10:40:00,
2013-09-02 03:41:00,59.1,56.8,29.89,ESE,119,0.0,0.0,92,0.00,,BKN045,0.00,VWS V14.01,2013-09-02 10:41:00,
2013-09-02 03:42:00,59.1,56.8,29.89,ESE,118,0.0,0.0,92,0.00,,BKN045,0.00,VWS V14.01,2013-09-02 10:42:00,
2013-09-02 03:43:00,59.1,56.8,29.88,ESE,118,0.0,0.0,92,0.00,,BKN045,0.00,VWS V14.01,2013-09-02 10:43:00,
2013-09-02 03:44:00,59.1,56.8,29.89,ESE,119,0.0,0.0,92,0.00,,BKN045,0.00,VWS V14.01,2013-09-02 10:44:00,
2013-09-02 03:45:00,59.1,56.8,29.89,ESE,119,0.0,0.0,92,0.00,,OVC065,0.00,VWS V14.01,2013-09-02 10:45:00,
2013-09-02 03:46:00,59.1,56.8,29.89,ESE,119,0.0,0.0,92,0.00,,BKN045,0.00,VWS V14.01,2013-09-02 10:46:00,
2013-09-02 03:47:00,59.1,56.8,29.89,ESE,118,0.0,0.0,92,0.00,,BKN045,0.00,VWS V14.01,2013-09-02 10:47:00,
2013-09-02 03:48:00,59.1,56.5,29.89,ESE,119,0.0,0.0,91,0.00,,BKN045,0.00,VWS V14.01,2013-09-02 10:48:00,
2013-09-02 03:49:00,59.1,56.5,29.89,ESE,119,0.0,0.0,91,0.00,,BKN045,0.00,VWS V14.01,2013-09-02 10:49:00,
2013-09-02 03:50:00,59.1,56.5,29.89,ESE,119,0.0,0.0,91,0.00,,OVC065,0.00,VWS V14.01,2013-09-02 10:50:00,
2013-09-02 03:51:00,59.2,56.9,29.89,ESE,119,0.0,0.0,92,0.00,,BKN045,0.00,VWS V14.01,2013-09-02 10:51:00,
2013-09-02 03:52:00,59.2,56.9,29.89,ESE,119,0.0,0.0,92,0.00,,BKN045,0.00,VWS V14.01,2013-09-02 10:52:00,
2013-09-02 03:53:00,59.2,56.9,29.89,ESE,119,0.0,0.0,92,0.00,,BKN045,0.00,VWS V14.01,2013-09-02 10:53:00,
2013-09-02 03:54:00,59.3,56.7,29.89,ESE,119,0.0,0.0,91,0.00,,BKN045,0.00,VWS V14.01,2013-09-02 10:54:00,
2013-09-02 03:55:00,59.2,56.9,29.89,ESE,119,0.0,0.0,92,0.00,,OVC065,0.00,VWS V14.01,2013-09-02 10:55:00,
2013-09-02 03:56:00,59.3,57.0,29.88,ESE,118,0.0,0.0,92,0.00,,BKN045,0.00,VWS V14.01,2013-09-02 10:56:00,
2013-09-02 03:57:00,59.3,56.7,29.89,ESE,119,0.0,0.0,91,0.00,,BKN045,0.00,VWS V14.01,2013-09-02 10:57:00,
2013-09-02 03:58:00,59.3,56.7,29.89,ESE,119,0.0,0.0,91,0.00,,BKN045,0.00,VWS V14.01,2013-09-02 10:58:00,
2013-09-02 03:59:00,59.3,56.7,29.89,ESE,118,0.0,0.0,91,0.00,,BKN045,0.00,VWS V14.01,2013-09-02 10:59:00,
2013-09-02 04:00:00,59.3,56.7,29.89,ESE,119,0.0,0.0,91,0.00,,OVC065,0.00,VWS V14.01,2013-09-02 11:00:00,
2013-09-02 04:01:00,59.4,56.8,29.88,ESE,118,0.0,0.0,91,0.00,,BKN045,0.00,VWS V14.01,2013-09-02 11:01:00,
2013-09-02 04:02:00,59.3,56.7,29.89,ESE,118,0.0,0.0,91,0.00,,BKN045,0.00,VWS V14.01,2013-09-02 11:02:00,
2013-09-02 04:03:00,59.4,56.8,29.88,ESE,118,0.0,0.0,91,0.00,,BKN045,0.00,VWS V14.01,2013-09-02 11:03:00,
2013-09-02 04:04:00,59.4,56.8,29.88,ESE,118,0.0,0.0,91,0.00,,BKN045,0.00,VWS V14.01,2013-09-02 11:04:00,
2013-09-02 04:05:00,59.4,56.8,29.88,ESE,119,0.0,0.0,91,0.00,,BKN075,0.00,VWS V14.01,2013-09-02 11:05:00,
2013-09-02 04:06:00,59.4,56.8,29.88,ESE,119,0.0,0.0,91,0.00,,BKN045,0.00,VWS V14.01,2013-09-02 11:06:00,
2013-09-02 04:07:00,59.4,56.8,29.88,ESE,119,0.0,0.0,91,0.00,,BKN045,0.00,VWS V14.01,2013-09-02 11:07:00,
2013-09-02 04:08:00,59.4,56.8,29.88,ESE,119,0.0,0.0,91,0.00,,BKN045,0.00,VWS V14.01,2013-09-02 11:08:00,
2013-09-02 04:09:00,59.4,56.8,29.88,ESE,118,0.0,0.0,91,0.00,,BKN045,0.00,VWS V14.01,2013-09-02 11:09:00,
2013-09-02 04:10:00,59.4,56.8,29.88,ESE,119,0.0,0.0,91,0.00,,BKN075,0.00,VWS V14.01,2013-09-02 11:10:00,
2013-09-02 04:11:00,59.4,56.8,29.88,ESE,118,0.0,0.0,91,0.00,,BKN045,0.00,VWS V14.01,2013-09-02 11:11:00,
2013-09-02 04:12:00,59.4,56.8,29.89,ESE,119,0.0,0.0,91,0.00,,BKN045,0.00,VWS V14.01,2013-09-02 11:12:00,
2013-09-02 04:13:00,59.4,56.8,29.89,ESE,119,0.0,0.0,91,0.00,,BKN045,0.00,VWS V14.01,2013-09-02 11:13:00,
2013-09-02 04:14:00,59.4,56.8,29.88,ESE,118,0.0,0.0,91,0.00,,BKN045,0.00,VWS V14.01,2013-09-02 11:14:00,
2013-09-02 04:15:00,59.4,56.8,29.88,ESE,119,0.0,0.0,91,0.00,,BKN075,0.00,VWS V14.01,2013-09-02 11:15:00,
2013-09-02 04:16:00,59.4,56.8,29.88,ESE,119,0.0,0.0,91,0.00,,BKN045,0.00,VWS V14.01,2013-09-02 11:16:00,
2013-09-02 04:17:00,59.4,56.8,29.88,ESE,119,0.0,0.0,91,0.00,,BKN045,0.00,VWS V14.01,2013-09-02 11:17:00,
2013-09-02 04:18:00,59.4,56.8,29.89,ESE,119,0.0,0.0,91,0.00,,BKN045,0.00,VWS V14.01,2013-09-02 11:18:00,
2013-09-02 04:19:00,59.4,56.8,29.89,ESE,119,0.0,0.0,91,0.00,,BKN045,0.00,VWS V14.01,2013-09-02 11:19:00,
2013-09-02 04:20:00,59.4,56.8,29.89,ESE,119,0.0,0.0,91,0.00,,BKN075,0.00,VWS V14.01,2013-09-02 11:20:00,
2013-09-02 04:21:00,59.4,56.8,29.89,ESE,119,0.0,0.0,91,0.00,,BKN045,0.00,VWS V14.01,2013-09-02 11:21:00,
2013-09-02 04:22:00,59.4,56.8,29.89,ESE,119,0.0,0.0,91,0.00,,BKN045,0.00,VWS V14.01,2013-09-02 11:22:00,
2013-09-02 04:23:00,59.5,56.9,29.89,ESE,119,0.0,0.0,91,0.00,,BKN045,0.00,VWS V14.01,2013-09-02 11:23:00,
2013-09-02 04:24:00,59.5,57.2,29.89,ESE,119,0.0,0.0,92,0.00,,BKN045,0.00,VWS V14.01,2013-09-02 11:24:00,
2013-09-02 04:25:00,59.5,56.9,29.89,ESE,119,0.0,0.0,91,0.00,,OVC110,0.00,VWS V14.01,2013-09-02 11:25:00,
2013-09-02 04:26:00,59.5,57.2,29.89,ESE,118,0.0,0.0,92,0.00,,BKN045,0.00,VWS V14.01,2013-09-02 11:26:00,
2013-09-02 04:27:00,59.5,57.2,29.89,ESE,118,0.0,0.0,92,0.00,,BKN045,0.00,VWS V14.01,2013-09-02 11:27:00,
2013-09-02 04:28:00,59.5,57.2,29.89,ESE,118,0.0,0.0,92,0.00,,BKN045,0.00,VWS V14.01,2013-09-02 11:28:00,
2013-09-02 04:29:00,59.5,57.2,29.89,ESE,119,0.0,0.0,92,0.00,,BKN045,0.00,VWS V14.01,2013-09-02 11:29:00,
2013-09-02 04:30:00,59.5,57.2,29.89,ESE,118,0.0,0.0,92,0.00,,OVC110,0.00,VWS V14.01,2013-09-02 11:30:00,
2013-09-02 04:31:00,59.6,57.3,29.89,ESE,119,0.0,0.0,92,0.00,,BKN045,0.00,VWS V14.01,2013-09-02 11:31:00,
2013-09-02 04:32:00,59.6,57.3,29.88,ESE,119,0.0,0.0,92,0.00,,BKN045,0.00,VWS V14.01,2013-09-02 11:32:00,
2013-09-02 04:33:00,59.6,57.3,29.88,ESE,119,0.0,0.0,92,0.00,,BKN045,0.00,VWS V14.01,2013-09-02 11:33:00,
2013-09-02 04:34:00,59.6,57.3,29.88,ESE,119,0.0,0.0,92,0.00,,BKN045,0.00,VWS V14.01,2013-09-02 11:34:00,
2013-09-02 04:35:00,59.6,57.3,29.88,ESE,119,0.0,0.0,92,0.00,,OVC110,0.00,VWS V14.01,2013-09-02 11:35:00,
2013-09-02 04:36:00,59.7,57.1,29.88,ESE,119,0.0,0.0,91,0.00,,BKN045,0.00,VWS V14.01,2013-09-02 11:36:00,
2013-09-02 04:37:00,59.7,57.1,29.89,ESE,119,0.0,0.0,91,0.00,,BKN045,0.00,VWS V14.01,2013-09-02 11:37:00,
2013-09-02 04:38:00,59.7,57.1,29.88,ESE,118,0.0,0.0,91,0.00,,BKN045,0.00,VWS V14.01,2013-09-02 11:38:00,
2013-09-02 04:39:00,59.7,57.1,29.88,ESE,119,0.0,0.0,91,0.00,,BKN045,0.00,VWS V14.01,2013-09-02 11:39:00,
2013-09-02 04:40:00,59.7,57.1,29.88,ESE,118,0.0,0.0,91,0.00,,OVC110,0.00,VWS V14.01,2013-09-02 11:40:00,
2013-09-02 04:41:00,59.8,57.2,29.88,ESE,119,0.0,0.0,91,0.00,,BKN045,0.00,VWS V14.01,2013-09-02 11:41:00,
2013-09-02 04:42:00,59.8,57.2,29.88,ESE,119,0.0,0.0,91,0.00,,BKN045,0.00,VWS V14.01,2013-09-02 11:42:00,
2013-09-02 04:43:00,59.8,57.2,29.88,ESE,119,0.0,0.0,91,0.00,,BKN045,0.00,VWS V14.01,2013-09-02 11:43:00,
2013-09-02 04:44:00,59.9,57.3,29.88,ESE,119,0.0,0.0,91,0.00,,BKN045,0.00,VWS V14.01,2013-09-02 11:44:00,
2013-09-02 04:45:00,59.8,57.2,29.88,ESE,118,0.0,0.0,91,0.00,,OVC075,0.00,VWS V14.01,2013-09-02 11:45:00,
2013-09-02 04:46:00,60.0,57.4,29.88,ESE,118,0.0,0.0,91,0.00,,BKN045,0.00,VWS V14.01,2013-09-02 11:46:00,
2013-09-02 04:47:00,60.0,57.4,29.88,ESE,119,0.0,0.0,91,0.00,,BKN045,0.00,VWS V14.01,2013-09-02 11:47:00,
2013-09-02 04:48:00,60.0,57.4,29.88,ESE,119,0.0,0.0,91,0.00,,BKN045,0.00,VWS V14.01,2013-09-02 11:48:00,
2013-09-02 04:49:00,60.1,57.5,29.88,ESE,118,0.0,0.0,91,0.00,,BKN045,0.00,VWS V14.01,2013-09-02 11:49:00,
2013-09-02 04:50:00,60.0,57.4,29.88,ESE,119,0.0,0.0,91,0.00,,OVC075,0.00,VWS V14.01,2013-09-02 11:50:00,
2013-09-02 04:51:00,60.2,57.6,29.88,ESE,118,0.0,0.0,91,0.00,,BKN045,0.00,VWS V14.01,2013-09-02 11:51:00,
2013-09-02 04:52:00,60.2,57.6,29.88,ESE,119,0.0,0.0,91,0.00,,BKN045,0.00,VWS V14.01,2013-09-02 11:52:00,
2013-09-02 04:53:00,60.2,57.3,29.88,ESE,119,0.0,0.0,90,0.00,,BKN045,0.00,VWS V14.01,2013-09-02 11:53:00,
2013-09-02 04:54:00,60.3,57.4,29.88,ESE,119,0.0,0.0,90,0.00,,BKN045,0.00,VWS V14.01,2013-09-02 11:54:00,
2013-09-02 04:55:00,60.2,57.3,29.88,ESE,118,0.0,0.0,90,0.00,,OVC075,0.00,VWS V14.01,2013-09-02 11:55:00,
2013-09-02 04:56:00,60.3,57.4,29.88,ESE,119,0.0,0.0,90,0.00,,BKN045,0.00,VWS V14.01,2013-09-02 11:56:00,
2013-09-02 04:57:00,60.4,57.5,29.88,ESE,118,0.0,0.0,90,0.00,,BKN045,0.00,VWS V14.01,2013-09-02 11:57:00,
2013-09-02 04:58:00,60.4,57.5,29.88,ESE,119,0.0,0.0,90,0.00,,BKN045,0.00,VWS V14.01,2013-09-02 11:58:00,
2013-09-02 04:59:00,60.4,57.5,29.88,ESE,119,0.0,0.0,90,0.00,,BKN045,0.00,VWS V14.01,2013-09-02 11:59:00,
2013-09-02 05:00:00,60.4,57.5,29.88,ESE,119,0.0,0.0,90,0.00,,OVC075,0.00,VWS V14.01,2013-09-02 12:00:00,
2013-09-02 05:01:00,60.4,57.5,29.88,ESE,119,0.0,0.0,90,0.00,,BKN045,0.00,VWS V14.01,2013-09-02 12:01:00,
2013-09-02 05:02:00,60.4,57.5,29.88,ESE,119,0.0,0.0,90,0.00,,BKN045,0.00,VWS V14.01,2013-09-02 12:02:00,
2013-09-02 05:03:00,60.4,57.5,29.88,ESE,119,0.0,0.0,90,0.00,,BKN045,0.00,VWS V14.01,2013-09-02 12:03:00,
2013-09-02 05:04:00,60.5,57.6,29.88,ESE,119,0.0,0.0,90,0.00,,BKN045,0.00,VWS V14.01,2013-09-02 12:04:00,
2013-09-02 05:05:00,60.4,57.5,29.88,ESE,118,0.0,0.0,90,0.00,,OVC075,0.00,VWS V14.01,2013-09-02 12:05:00,
2013-09-02 05:06:00,60.5,57.6,29.88,ESE,119,0.0,0.0,90,0.00,,BKN045,0.00,VWS V14.01,2013-09-02 12:06:00,
2013-09-02 05:07:00,60.5,57.6,29.88,ESE,119,0.0,0.0,90,0.00,,BKN045,0.00,VWS V14.01,2013-09-02 12:07:00,
2013-09-02 05:08:00,60.5,57.6,29.88,ESE,119,0.0,0.0,90,0.00,,BKN045,0.00,VWS V14.01,2013-09-02 12:08:00,
2013-09-02 05:09:00,60.5,57.6,29.88,ESE,118,0.0,0.0,90,0.00,,BKN045,0.00,VWS V14.01,2013-09-02 12:09:00,
2013-09-02 05:10:00,60.5,57.6,29.88,ESE,119,0.0,0.0,90,0.00,,OVC075,0.00,VWS V14.01,2013-09-02 12:10:00,
2013-09-02 05:11:00,60.5,57.6,29.88,ESE,118,0.0,0.0,90,0.00,,BKN045,0.00,VWS V14.01,2013-09-02 12:11:00,
2013-09-02 05:12:00,60.5,57.6,29.88,ESE,118,0.0,0.0,90,0.00,,BKN045,0.00,VWS V14.01,2013-09-02 12:12:00,
2013-09-02 05:13:00,60.5,57.6,29.88,ESE,119,0.0,0.0,90,0.00,,BKN045,0.00,VWS V14.01,2013-09-02 12:13:00,
2013-09-02 05:14:00,60.5,57.6,29.88,ESE,118,0.0,0.0,90,0.00,,BKN045,0.00,VWS V14.01,2013-09-02 12:14:00,
2013-09-02 05:15:00,60.5,57.6,29.88,ESE,119,0.0,0.0,90,0.00,,OVC075,0.00,VWS V14.01,2013-09-02 12:15:00,
2013-09-02 05:16:00,60.5,57.6,29.88,ESE,118,0.0,0.0,90,0.00,,BKN045,0.00,VWS V14.01,2013-09-02 12:16:00,
2013-09-02 05:17:00,60.5,57.6,29.88,ESE,118,0.0,0.0,90,0.00,,BKN045,0.00,VWS V14.01,2013-09-02 12:17:00,
2013-09-02 05:18:00,60.5,57.6,29.88,ESE,118,0.0,0.0,90,0.00,,BKN045,0.00,VWS V14.01,2013-09-02 12:18:00,
2013-09-02 05:19:00,60.6,57.7,29.88,ESE,119,0.0,0.0,90,0.00,,BKN045,0.00,VWS V14.01,2013-09-02 12:19:00,
2013-09-02 05:20:00,60.5,57.6,29.88,ESE,118,1.0,0.0,90,0.00,,OVC075,0.00,VWS V14.01,2013-09-02 12:20:00,
2013-09-02 05:21:00,60.6,57.7,29.88,ESE,119,0.0,0.0,90,0.00,,BKN045,0.00,VWS V14.01,2013-09-02 12:21:00,
2013-09-02 05:22:00,60.7,57.8,29.88,ESE,118,0.0,0.0,90,0.00,,BKN045,0.00,VWS V14.01,2013-09-02 12:22:00,
2013-09-02 05:23:00,60.7,57.8,29.88,ESE,119,0.0,0.0,90,0.00,,BKN045,0.00,VWS V14.01,2013-09-02 12:23:00,
2013-09-02 05:24:00,60.7,57.8,29.88,ESE,119,0.0,0.0,90,0.00,,BKN045,0.00,VWS V14.01,2013-09-02 12:24:00,
2013-09-02 05:25:00,60.7,57.8,29.88,ESE,119,0.0,0.0,90,0.00,,OVC075,0.00,VWS V14.01,2013-09-02 12:25:00,
2013-09-02 05:26:00,60.7,57.8,29.88,ESE,119,0.0,0.0,90,0.00,,BKN045,0.00,VWS V14.01,2013-09-02 12:26:00,
2013-09-02 05:27:00,60.8,57.8,29.88,ESE,119,0.0,0.0,90,0.00,,BKN045,0.00,VWS V14.01,2013-09-02 12:27:00,
2013-09-02 05:28:00,60.8,57.8,29.88,ESE,118,0.0,0.0,90,0.00,,BKN045,0.00,VWS V14.01,2013-09-02 12:28:00,
2013-09-02 05:29:00,60.7,57.8,29.88,ESE,119,0.0,0.0,90,0.00,,BKN045,0.00,VWS V14.01,2013-09-02 12:29:00,
2013-09-02 05:30:00,60.8,57.8,29.88,ESE,119,0.0,0.0,90,0.00,,OVC075,0.00,VWS V14.01,2013-09-02 12:30:00,
2013-09-02 05:31:00,60.8,57.8,29.88,ESE,119,0.0,0.0,90,0.00,,BKN045,0.00,VWS V14.01,2013-09-02 12:31:00,
2013-09-02 05:32:00,60.7,57.8,29.88,ESE,118,0.0,0.0,90,0.00,,BKN045,0.00,VWS V14.01,2013-09-02 12:32:00,
2013-09-02 05:33:00,60.7,57.8,29.88,ESE,118,0.0,0.0,90,0.00,,BKN045,0.00,VWS V14.01,2013-09-02 12:33:00,
2013-09-02 05:34:00,60.7,57.8,29.88,ESE,119,0.0,0.0,90,0.00,,BKN045,0.00,VWS V14.01,2013-09-02 12:34:00,
2013-09-02 05:35:00,60.8,57.8,29.88,ESE,118,0.0,0.0,90,0.00,,OVC075,0.00,VWS V14.01,2013-09-02 12:35:00,
2013-09-02 05:36:00,60.7,57.8,29.88,ESE,118,0.0,0.0,90,0.00,,BKN045,0.00,VWS V14.01,2013-09-02 12:36:00,
2013-09-02 05:37:00,60.7,57.8,29.89,ESE,119,0.0,0.0,90,0.00,,BKN045,0.00,VWS V14.01,2013-09-02 12:37:00,
2013-09-02 05:38:00,60.7,57.8,29.89,ESE,119,0.0,0.0,90,0.00,,BKN045,0.00,VWS V14.01,2013-09-02 12:38:00,
2013-09-02 05:39:00,60.7,57.8,29.89,ESE,119,0.0,0.0,90,0.00,,BKN045,0.00,VWS V14.01,2013-09-02 12:39:00,
2013-09-02 05:40:00,60.7,57.8,29.89,ESE,119,0.0,0.0,90,0.00,,OVC075,0.00,VWS V14.01,2013-09-02 12:40:00,
2013-09-02 05:41:00,60.8,57.8,29.88,ESE,119,0.0,0.0,90,0.00,,BKN045,0.00,VWS V14.01,2013-09-02 12:41:00,
2013-09-02 05:42:00,60.8,57.8,29.88,ESE,119,0.0,0.0,90,0.00,,BKN045,0.00,VWS V14.01,2013-09-02 12:42:00,
2013-09-02 05:43:00,60.7,57.8,29.88,ESE,119,0.0,0.0,90,0.00,,BKN045,0.00,VWS V14.01,2013-09-02 12:43:00,
2013-09-02 05:44:00,60.7,57.8,29.88,ESE,119,0.0,0.0,90,0.00,,BKN045,0.00,VWS V14.01,2013-09-02 12:44:00,
2013-09-02 05:45:00,60.7,57.8,29.88,ESE,118,0.0,0.0,90,0.00,,OVC075,0.00,VWS V14.01,2013-09-02 12:45:00,
2013-09-02 05:46:00,60.7,57.8,29.88,ESE,119,0.0,0.0,90,0.00,,BKN045,0.00,VWS V14.01,2013-09-02 12:46:00,
2013-09-02 05:47:00,60.7,57.8,29.88,ESE,119,0.0,0.0,90,0.00,,BKN045,0.00,VWS V14.01,2013-09-02 12:47:00,
2013-09-02 05:48:00,60.7,57.8,29.88,ESE,118,0.0,0.0,90,0.00,,BKN045,0.00,VWS V14.01,2013-09-02 12:48:00,
2013-09-02 05:49:00,60.7,57.8,29.89,ESE,119,0.0,0.0,90,0.00,,BKN045,0.00,VWS V14.01,2013-09-02 12:49:00,
2013-09-02 05:50:00,60.7,57.8,29.88,ESE,119,0.0,0.0,90,0.00,,OVC075,0.00,VWS V14.01,2013-09-02 12:50:00,
2013-09-02 05:51:00,60.7,57.8,29.88,ESE,118,0.0,0.0,90,0.00,,BKN045,0.00,VWS V14.01,2013-09-02 12:51:00,
2013-09-02 05:52:00,60.6,57.7,29.89,ESE,119,0.0,0.0,90,0.00,,BKN045,0.00,VWS V14.01,2013-09-02 12:52:00,
2013-09-02 05:53:00,60.6,57.7,29.89,ESE,119,0.0,0.0,90,0.00,,BKN045,0.00,VWS V14.01,2013-09-02 12:53:00,
2013-09-02 05:54:00,60.6,57.7,29.89,ESE,118,0.0,0.0,90,0.00,,BKN045,0.00,VWS V14.01,2013-09-02 12:54:00,
2013-09-02 05:55:00,60.6,57.7,29.89,ESE,119,0.0,0.0,90,0.00,,OVC075,0.00,VWS V14.01,2013-09-02 12:55:00,
2013-09-02 05:56:00,60.6,57.7,29.88,ESE,118,0.0,0.0,90,0.00,,BKN045,0.00,VWS V14.01,2013-09-02 12:56:00,
2013-09-02 05:57:00,60.6,57.7,29.88,ESE,118,0.0,0.0,90,0.00,,BKN045,0.00,VWS V14.01,2013-09-02 12:57:00,
2013-09-02 05:58:00,60.6,57.7,29.88,ESE,119,0.0,0.0,90,0.00,,BKN045,0.00,VWS V14.01,2013-09-02 12:58:00,
2013-09-02 05:59:00,60.6,57.7,29.88,ESE,119,0.0,0.0,90,0.00,,BKN045,0.00,VWS V14.01,2013-09-02 12:59:00,
2013-09-02 06:00:00,60.6,57.7,29.88,ESE,119,0.0,0.0,90,0.00,,OVC075,0.00,VWS V14.01,2013-09-02 13:00:00,
2013-09-02 06:01:00,60.6,57.7,29.88,ESE,118,0.0,0.0,90,0.00,,BKN045,0.00,VWS V14.01,2013-09-02 13:01:00,
2013-09-02 06:02:00,60.6,57.7,29.89,ESE,119,0.0,0.0,90,0.00,,BKN045,0.00,VWS V14.01,2013-09-02 13:02:00,
2013-09-02 06:03:00,60.6,57.7,29.89,ESE,119,0.0,0.0,90,0.00,,BKN045,0.00,VWS V14.01,2013-09-02 13:03:00,
2013-09-02 06:04:00,60.6,57.7,29.89,ESE,119,0.0,0.0,90,0.00,,BKN045,0.00,VWS V14.01,2013-09-02 13:04:00,
2013-09-02 06:05:00,60.6,57.7,29.89,ESE,119,0.0,0.0,90,0.00,,OVC065,0.00,VWS V14.01,2013-09-02 13:05:00,
2013-09-02 06:06:00,60.6,57.7,29.89,ESE,118,0.0,0.0,90,0.00,,BKN045,0.00,VWS V14.01,2013-09-02 13:06:00,
2013-09-02 06:07:00,60.6,57.7,29.89,ESE,118,0.0,0.0,90,0.00,,BKN045,0.00,VWS V14.01,2013-09-02 13:07:00,
2013-09-02 06:08:00,60.6,57.7,29.89,ESE,119,0.0,0.0,90,0.00,,BKN045,0.00,VWS V14.01,2013-09-02 13:08:00,
2013-09-02 06:09:00,60.6,57.7,29.89,ESE,119,0.0,0.0,90,0.00,,BKN045,0.00,VWS V14.01,2013-09-02 13:09:00,
2013-09-02 06:10:00,60.6,57.7,29.89,ESE,119,0.0,0.0,90,0.00,,OVC065,0.00,VWS V14.01,2013-09-02 13:10:00,
2013-09-02 06:11:00,60.6,57.7,29.89,ESE,118,0.0,0.0,90,0.00,,BKN045,0.00,VWS V14.01,2013-09-02 13:11:00,
2013-09-02 06:12:00,60.6,57.7,29.89,ESE,119,0.0,0.0,90,0.00,,BKN045,0.00,VWS V14.01,2013-09-02 13:12:00,
2013-09-02 06:13:00,60.6,57.7,29.89,ESE,119,0.0,0.0,90,0.00,,BKN045,0.00,VWS V14.01,2013-09-02 13:13:00,
2013-09-02 06:14:00,60.6,57.7,29.89,ESE,119,0.0,0.0,90,0.00,,BKN045,0.00,VWS V14.01,2013-09-02 13:14:00,
2013-09-02 06:15:00,60.5,57.6,29.89,ESE,119,0.0,0.0,90,0.00,,OVC065,0.00,VWS V14.01,2013-09-02 13:15:00,
2013-09-02 06:16:00,60.6,58.0,29.89,ESE,119,0.0,0.0,91,0.00,,BKN045,0.00,VWS V14.01,2013-09-02 13:16:00,
2013-09-02 06:17:00,60.6,58.0,29.89,ESE,119,0.0,0.0,91,0.00,,BKN045,0.00,VWS V14.01,2013-09-02 13:17:00,
2013-09-02 06:18:00,60.6,58.0,29.89,ESE,118,0.0,0.0,91,0.00,,BKN045,0.00,VWS V14.01,2013-09-02 13:18:00,
2013-09-02 06:19:00,60.6,58.0,29.89,ESE,119,0.0,0.0,91,0.00,,BKN045,0.00,VWS V14.01,2013-09-02 13:19:00,
2013-09-02 06:20:00,60.5,57.9,29.89,ESE,119,0.0,0.0,91,0.00,,OVC065,0.00,VWS V14.01,2013-09-02 13:20:00,
2013-09-02 06:21:00,60.6,58.0,29.89,ESE,118,0.0,0.0,91,0.00,,BKN045,0.00,VWS V14.01,2013-09-02 13:21:00,
2013-09-02 06:22:00,60.6,58.0,29.88,ESE,119,0.0,0.0,91,0.00,,BKN045,0.00,VWS V14.01,2013-09-02 13:22:00,
2013-09-02 06:23:00,60.6,58.0,29.88,ESE,119,0.0,0.0,91,0.00,,BKN045,0.00,VWS V14.01,2013-09-02 13:23:00,
2013-09-02 06:24:00,60.6,58.0,29.89,ESE,119,0.0,0.0,91,0.00,,BKN045,0.00,VWS V14.01,2013-09-02 13:24:00,
2013-09-02 06:25:00,60.6,58.0,29.88,ESE,119,0.0,0.0,91,0.00,,OVC065,0.00,VWS V14.01,2013-09-02 13:25:00,
2013-09-02 06:26:00,60.6,58.0,29.88,ESE,119,0.0,0.0,91,0.00,,BKN045,0.00,VWS V14.01,2013-09-02 13:26:00,
2013-09-02 06:27:00,60.6,58.0,29.88,ESE,119,0.0,0.0,91,0.00,,BKN045,0.00,VWS V14.01,2013-09-02 13:27:00,
2013-09-02 06:28:00,60.6,58.0,29.88,ESE,119,0.0,0.0,91,0.00,,BKN045,0.00,VWS V14.01,2013-09-02 13:28:00,
2013-09-02 06:29:00,60.6,58.0,29.88,ESE,118,0.0,0.0,91,0.00,,BKN045,0.00,VWS V14.01,2013-09-02 13:29:00,
2013-09-02 06:30:00,60.5,57.9,29.88,ESE,119,0.0,0.0,91,0.00,,OVC065,0.00,VWS V14.01,2013-09-02 13:30:00,
2013-09-02 06:31:00,60.5,57.9,29.88,ESE,119,0.0,0.0,91,0.00,,BKN045,0.00,VWS V14.01,2013-09-02 13:31:00,
2013-09-02 06:32:00,60.5,57.9,29.88,ESE,119,0.0,0.0,91,0.00,,BKN045,0.00,VWS V14.01,2013-09-02 13:32:00,
2013-09-02 06:33:00,60.5,57.9,29.88,ESE,119,0.0,0.0,91,0.00,,BKN045,0.00,VWS V14.01,2013-09-02 13:33:00,
2013-09-02 06:34:00,60.5,57.9,29.88,ESE,119,0.0,0.0,91,0.00,,BKN045,0.00,VWS V14.01,2013-09-02 13:34:00,
2013-09-02 06:35:00,60.5,57.9,29.88,ESE,119,0.0,0.0,91,0.00,,OVC065,0.00,VWS V14.01,2013-09-02 13:35:00,
2013-09-02 06:36:00,60.5,57.9,29.88,ESE,118,0.0,0.0,91,0.00,,BKN045,0.00,VWS V14.01,2013-09-02 13:36:00,
2013-09-02 06:37:00,60.5,57.9,29.88,ESE,118,0.0,0.0,91,0.00,,BKN045,0.00,VWS V14.01,2013-09-02 13:37:00,
2013-09-02 06:38:00,60.5,57.9,29.88,ESE,119,0.0,0.0,91,0.00,,BKN045,0.00,VWS V14.01,2013-09-02 13:38:00,
2013-09-02 06:39:00,60.5,57.9,29.88,ESE,119,0.0,0.0,91,0.00,,BKN045,0.00,VWS V14.01,2013-09-02 13:39:00,
2013-09-02 06:40:00,60.5,57.9,29.88,ESE,119,0.0,0.0,91,0.00,,OVC065,0.00,VWS V14.01,2013-09-02 13:40:00,
2013-09-02 06:41:00,60.5,57.9,29.88,ESE,119,0.0,0.0,91,0.00,,BKN045,0.00,VWS V14.01,2013-09-02 13:41:00,
2013-09-02 06:42:00,60.5,57.9,29.88,ESE,119,0.0,0.0,91,0.00,,BKN045,0.00,VWS V14.01,2013-09-02 13:42:00,
2013-09-02 06:43:00,60.5,57.9,29.89,ESE,118,0.0,0.0,91,0.00,,BKN045,0.00,VWS V14.01,2013-09-02 13:43:00,
2013-09-02 06:44:00,60.5,57.9,29.88,ESE,118,0.0,0.0,91,0.00,,BKN045,0.00,VWS V14.01,2013-09-02 13:44:00,
2013-09-02 06:45:00,60.5,57.9,29.89,ESE,119,0.0,0.0,91,0.00,,OVC080,0.00,VWS V14.01,2013-09-02 13:45:00,
2013-09-02 06:46:00,60.7,58.1,29.88,ESE,118,0.0,0.0,91,0.00,,BKN045,0.00,VWS V14.01,2013-09-02 13:46:00,
2013-09-02 06:47:00,60.7,58.1,29.88,ESE,119,0.0,0.0,91,0.00,,BKN045,0.00,VWS V14.01,2013-09-02 13:47:00,
2013-09-02 06:48:00,60.8,58.2,29.88,ESE,119,0.0,0.0,91,0.00,,BKN045,0.00,VWS V14.01,2013-09-02 13:48:00,
2013-09-02 06:49:00,60.8,58.2,29.88,ESE,118,0.0,0.0,91,0.00,,BKN045,0.00,VWS V14.01,2013-09-02 13:49:00,
2013-09-02 06:50:00,60.7,58.1,29.88,ESE,119,0.0,0.0,91,0.00,,OVC080,0.00,VWS V14.01,2013-09-02 13:50:00,
2013-09-02 06:51:00,60.9,58.0,29.88,ESE,119,0.0,0.0,90,0.00,,BKN045,0.00,VWS V14.01,2013-09-02 13:51:00,
2013-09-02 06:52:00,60.9,58.0,29.88,ESE,118,1.0,0.0,90,0.00,,BKN045,0.00,VWS V14.01,2013-09-02 13:52:00,
2013-09-02 06:54:00,61.1,58.2,29.88,ESE,119,0.0,0.0,90,0.00,,BKN045,0.00,VWS V14.01,2013-09-02 13:54:00,
2013-09-02 06:55:00,61.0,58.0,29.88,ESE,119,0.0,0.0,90,0.00,,OVC080,0.00,VWS V14.01,2013-09-02 13:55:00,
2013-09-02 06:56:00,61.2,58.2,29.88,ESE,119,0.0,0.0,90,0.00,,BKN045,0.00,VWS V14.01,2013-09-02 13:56:00,
2013-09-02 06:57:00,61.2,58.2,29.88,ESE,119,0.0,0.0,90,0.00,,BKN045,0.00,VWS V14.01,2013-09-02 13:57:00,
2013-09-02 06:58:00,61.3,58.3,29.88,ESE,119,0.0,0.0,90,0.00,,BKN045,0.00,VWS V14.01,2013-09-02 13:58:00,
2013-09-02 06:59:00,61.3,58.3,29.88,ESE,119,0.0,0.0,90,0.00,,BKN045,0.00,VWS V14.01,2013-09-02 13:59:00,
2013-09-02 07:00:00,61.3,58.3,29.88,ESE,119,0.0,0.0,90,0.00,,OVC080,0.00,VWS V14.01,2013-09-02 14:00:00,
2013-09-02 07:01:00,61.4,58.1,29.88,ESE,119,0.0,0.0,89,0.00,,BKN045,0.00,VWS V14.01,2013-09-02 14:01:00,
2013-09-02 07:02:00,61.4,58.1,29.88,ESE,119,0.0,0.0,89,0.00,,BKN045,0.00,VWS V14.01,2013-09-02 14:02:00,
2013-09-02 07:03:00,61.5,58.2,29.88,ESE,118,0.0,0.0,89,0.00,,BKN045,0.00,VWS V14.01,2013-09-02 14:03:00,
2013-09-02 07:04:00,61.5,58.2,29.88,ESE,119,0.0,0.0,89,0.00,,BKN045,0.00,VWS V14.01,2013-09-02 14:04:00,
2013-09-02 07:05:00,61.4,58.1,29.88,ESE,119,0.0,0.0,89,0.00,,OVC080,0.00,VWS V14.01,2013-09-02 14:05:00,
2013-09-02 07:06:00,61.6,58.3,29.88,ESE,119,0.0,0.0,89,0.00,,BKN045,0.00,VWS V14.01,2013-09-02 14:06:00,
2013-09-02 07:07:00,61.7,58.1,29.88,ESE,118,0.0,0.0,88,0.00,,BKN045,0.00,VWS V14.01,2013-09-02 14:07:00,
2013-09-02 07:08:00,61.7,58.1,29.88,ESE,119,0.0,0.0,88,0.00,,BKN045,0.00,VWS V14.01,2013-09-02 14:08:00,
2013-09-02 07:09:00,61.8,58.2,29.88,ESE,118,0.0,0.0,88,0.00,,BKN045,0.00,VWS V14.01,2013-09-02 14:09:00,
2013-09-02 07:10:00,61.7,58.1,29.88,ESE,119,0.0,0.0,88,0.00,,OVC080,0.00,VWS V14.01,2013-09-02 14:10:00,
2013-09-02 07:11:00,61.9,58.3,29.88,ESE,118,0.0,0.0,88,0.00,,BKN045,0.00,VWS V14.01,2013-09-02 14:11:00,
2013-09-02 07:12:00,61.9,58.3,29.88,ESE,119,0.0,0.0,88,0.00,,BKN045,0.00,VWS V14.01,2013-09-02 14:12:00,
2013-09-02 07:13:00,62.0,58.4,29.88,ESE,118,0.0,0.0,88,0.00,,BKN045,0.00,VWS V14.01,2013-09-02 14:13:00,
2013-09-02 07:14:00,62.0,58.4,29.88,ESE,118,1.0,0.0,88,0.00,,BKN045,0.00,VWS V14.01,2013-09-02 14:14:00,
2013-09-02 07:15:00,62.0,58.4,29.88,ESE,118,0.0,0.0,88,0.00,,OVC070,0.00,VWS V14.01,2013-09-02 14:15:00,
2013-09-02 07:16:00,62.2,58.6,29.88,ESE,118,0.0,0.0,88,0.00,,BKN045,0.00,VWS V14.01,2013-09-02 14:16:00,
2013-09-02 07:17:00,62.2,58.6,29.88,ESE,118,0.0,0.0,88,0.00,,BKN045,0.00,VWS V14.01,2013-09-02 14:17:00,
2013-09-02 07:18:00,62.2,58.6,29.88,ESE,119,0.0,0.0,88,0.00,,BKN045,0.00,VWS V14.01,2013-09-02 14:18:00,
2013-09-02 07:19:00,62.3,58.7,29.89,ESE,119,0.0,0.0,88,0.00,,BKN045,0.00,VWS V14.01,2013-09-02 14:19:00,
2013-09-02 07:20:00,62.2,58.6,29.88,ESE,118,0.0,0.0,88,0.00,,OVC070,0.00,VWS V14.01,2013-09-02 14:20:00,
2013-09-02 07:21:00,62.4,58.5,29.89,ESE,119,0.0,0.0,87,0.00,,BKN045,0.00,VWS V14.01,2013-09-02 14:21:00,
2013-09-02 07:22:00,62.5,58.9,29.88,ESE,119,0.0,0.0,88,0.00,,BKN045,0.00,VWS V14.01,2013-09-02 14:22:00,
2013-09-02 07:23:00,62.6,59.0,29.88,ESE,118,0.0,0.0,88,0.00,,BKN045,0.00,VWS V14.01,2013-09-02 14:23:00,
2013-09-02 07:24:00,62.7,59.1,29.88,ESE,119,0.0,0.0,88,0.00,,BKN045,0.00,VWS V14.01,2013-09-02 14:24:00,
2013-09-02 07:25:00,62.6,59.0,29.88,ESE,119,0.0,0.0,88,0.00,,OVC085,0.00,VWS V14.01,2013-09-02 14:25:00,
2013-09-02 07:26:00,62.9,59.3,29.89,ESE,119,0.0,0.0,88,0.00,,BKN045,0.00,VWS V14.01,2013-09-02 14:26:00,
2013-09-02 07:27:00,63.0,59.4,29.89,ESE,119,0.0,0.0,88,0.00,,BKN045,0.00,VWS V14.01,2013-09-02 14:27:00,
2013-09-02 07:28:00,63.1,59.5,29.89,ESE,119,0.0,0.0,88,0.00,,BKN045,0.00,VWS V14.01,2013-09-02 14:28:00,
2013-09-02 07:29:00,63.2,59.6,29.89,ESE,118,0.0,0.0,88,0.00,,BKN045,0.00,VWS V14.01,2013-09-02 14:29:00,
2013-09-02 07:30:00,63.1,59.5,29.89,ESE,118,0.0,0.0,88,0.00,,OVC085,0.00,VWS V14.01,2013-09-02 14:30:00,
2013-09-02 07:31:00,63.4,59.2,29.89,ESE,118,1.0,0.0,86,0.00,,BKN045,0.00,VWS V14.01,2013-09-02 14:31:00,
2013-09-02 07:32:00,63.5,59.2,29.89,ESE,117,0.0,0.0,86,0.00,,BKN045,0.00,VWS V14.01,2013-09-02 14:32:00,
2013-09-02 07:33:00,63.7,59.4,29.89,ESE,117,0.0,0.0,86,0.00,,BKN045,0.00,VWS V14.01,2013-09-02 14:33:00,
2013-09-02 07:34:00,63.9,59.6,29.89,ESE,117,0.0,0.0,86,0.00,,BKN045,0.00,VWS V14.01,2013-09-02 14:34:00,
2013-09-02 07:35:00,63.6,59.3,29.89,ESE,117,0.0,0.0,86,0.00,,OVC085,0.00,VWS V14.01,2013-09-02 14:35:00,
2013-09-02 07:36:00,64.2,59.6,29.89,ESE,117,0.0,0.0,85,0.00,,BKN045,0.00,VWS V14.01,2013-09-02 14:36:00,
2013-09-02 07:37:00,64.5,59.9,29.89,ESE,117,0.0,0.0,85,0.00,,BKN045,0.00,VWS V14.01,2013-09-02 14:37:00,
2013-09-02 07:38:00,64.9,60.3,29.89,ESE,117,0.0,0.0,85,0.00,,BKN045,0.00,VWS V14.01,2013-09-02 14:38:00,
2013-09-02 07:39:00,65.1,60.2,29.89,ESE,117,0.0,0.0,84,0.00,,BKN045,0.00,VWS V14.01,2013-09-02 14:39:00,
2013-09-02 07:40:00,64.7,60.1,29.89,ESE,117,0.0,0.0,85,0.00,,OVC085,0.00,VWS V14.01,2013-09-02 14:40:00,
2013-09-02 07:41:00,65.5,60.2,29.89,ESE,117,0.0,0.0,83,0.00,,BKN045,0.00,VWS V14.01,2013-09-02 14:41:00,
2013-09-02 07:42:00,65.7,60.4,29.89,ESE,117,0.0,0.0,83,0.00,,BKN045,0.00,VWS V14.01,2013-09-02 14:42:00,
2013-09-02 07:43:00,65.8,60.2,29.89,ESE,117,0.0,0.0,82,0.00,,BKN045,0.00,VWS V14.01,2013-09-02 14:43:00,
2013-09-02 07:44:00,65.9,59.9,29.89,ESE,117,0.0,0.0,81,0.00,,BKN045,0.00,VWS V14.01,2013-09-02 14:44:00,
2013-09-02 07:45:00,65.8,60.5,29.89,ESE,117,0.0,0.0,83,0.00,,BKN085,0.00,VWS V14.01,2013-09-02 14:45:00,
2013-09-02 07:46:00,66.0,60.0,29.89,ESE,117,0.0,0.0,81,0.00,,BKN045,0.00,VWS V14.01,2013-09-02 14:46:00,
2013-09-02 07:47:00,66.0,60.0,29.89,SSW,194,1.0,0.0,81,0.00,,BKN045,0.00,VWS V14.01,2013-09-02 14:47:00,
2013-09-02 07:48:00,66.0,59.7,29.89,SSW,194,0.0,0.0,80,0.00,,BKN045,0.00,VWS V14.01,2013-09-02 14:48:00,
2013-09-02 07:49:00,65.9,59.9,29.89,SSW,194,0.0,0.0,81,0.00,,BKN045,0.00,VWS V14.01,2013-09-02 14:49:00,
2013-09-02 07:50:00,66.0,59.7,29.89,SSW,194,0.0,0.0,80,0.00,,BKN085,0.00,VWS V14.01,2013-09-02 14:50:00,
2013-09-02 07:51:00,65.9,59.9,29.89,SSW,200,0.0,0.0,81,0.00,,BKN045,0.00,VWS V14.01,2013-09-02 14:51:00,
2013-09-02 07:52:00,65.8,59.8,29.89,SSW,198,0.0,0.0,81,0.00,,BKN045,0.00,VWS V14.01,2013-09-02 14:52:00,
2013-09-02 07:53:00,65.9,59.9,29.89,SSW,198,0.0,0.0,81,0.00,,BKN045,0.00,VWS V14.01,2013-09-02 14:53:00,
2013-09-02 07:54:00,65.9,59.9,29.89,SSW,198,0.0,0.0,81,0.00,,BKN045,0.00,VWS V14.01,2013-09-02 14:54:00,
2013-09-02 07:55:00,65.9,59.9,29.89,SSW,198,0.0,0.0,81,0.00,,BKN085,0.00,VWS V14.01,2013-09-02 14:55:00,
2013-09-02 07:56:00,66.1,60.1,29.89,SSW,200,0.0,0.0,81,0.00,,BKN045,0.00,VWS V14.01,2013-09-02 14:56:00,
2013-09-02 07:57:00,66.2,60.2,29.89,SSW,198,0.0,0.0,81,0.00,,BKN045,0.00,VWS V14.01,2013-09-02 14:57:00,
2013-09-02 07:58:00,66.3,60.0,29.89,SSW,198,0.0,0.0,80,0.00,,BKN045,0.00,VWS V14.01,2013-09-02 14:58:00,
2013-09-02 07:59:00,66.4,60.4,29.89,SSW,198,0.0,0.0,81,0.00,,BKN045,0.00,VWS V14.01,2013-09-02 14:59:00,
2013-09-02 08:00:00,66.3,60.0,29.89,SSW,198,0.0,0.0,80,0.00,,BKN085,0.00,VWS V14.01,2013-09-02 15:00:00,
2013-09-02 08:01:00,66.9,60.2,29.89,SSW,198,0.0,0.0,79,0.00,,BKN045,0.00,VWS V14.01,2013-09-02 15:01:00,
2013-09-02 08:02:00,67.1,60.4,29.89,West,264,0.0,0.0,79,0.00,,BKN045,0.00,VWS V14.01,2013-09-02 15:02:00,
2013-09-02 08:03:00,67.3,60.2,29.89,West,264,0.0,0.0,78,0.00,,BKN045,0.00,VWS V14.01,2013-09-02 15:03:00,
2013-09-02 08:04:00,67.5,60.4,29.89,West,264,0.0,0.0,78,0.00,,BKN045,0.00,VWS V14.01,2013-09-02 15:04:00,
2013-09-02 08:05:00,67.2,60.1,29.89,West,264,0.0,0.0,78,0.00,,FEW085,0.00,VWS V14.01,2013-09-02 15:05:00,
2013-09-02 08:06:00,68.0,60.5,29.89,West,264,0.0,0.0,77,0.00,,BKN045,0.00,VWS V14.01,2013-09-02 15:06:00,
2013-09-02 08:07:00,68.1,60.6,29.89,WSW,252,0.0,0.0,77,0.00,,BKN045,0.00,VWS V14.01,2013-09-02 15:07:00,
2013-09-02 08:08:00,68.3,60.8,29.89,WSW,252,0.0,0.0,77,0.00,,BKN045,0.00,VWS V14.01,2013-09-02 15:08:00,
2013-09-02 08:09:00,68.5,61.0,29.89,WSW,252,0.0,0.0,77,0.00,,BKN045,0.00,VWS V14.01,2013-09-02 15:09:00,
2013-09-02 08:10:00,68.2,60.7,29.89,WSW,251,0.0,0.0,77,0.00,,FEW085,0.00,VWS V14.01,2013-09-02 15:10:00,
2013-09-02 08:11:00,69.1,60.8,29.89,NNE,17,0.0,0.0,75,0.00,,BKN045,0.00,VWS V14.01,2013-09-02 15:11:00,
2013-09-02 08:12:00,69.3,61.0,29.89,NNE,17,0.0,0.0,75,0.00,,BKN045,0.00,VWS V14.01,2013-09-02 15:12:00,
2013-09-02 08:13:00,69.4,61.1,29.89,NNE,17,0.0,0.0,75,0.00,,BKN045,0.00,VWS V14.01,2013-09-02 15:13:00,
2013-09-02 08:14:00,69.7,61.0,29.89,NE,52,0.0,0.0,74,0.00,,BKN045,0.00,VWS V14.01,2013-09-02 15:14:00,
2013-09-02 08:15:00,69.4,61.1,29.89,NNE,17,0.0,0.0,75,0.00,,FEW085,0.00,VWS V14.01,2013-09-02 15:15:00,
2013-09-02 08:16:00,69.7,60.7,29.89,South,183,1.0,0.0,73,0.00,,BKN045,0.00,VWS V14.01,2013-09-02 15:16:00,
2013-09-02 08:17:00,69.6,60.6,29.89,NW,308,1.0,0.0,73,0.00,,BKN045,0.00,VWS V14.01,2013-09-02 15:17:00,
2013-09-02 08:18:00,69.5,60.5,29.89,NW,315,1.0,0.0,73,0.00,,BKN045,0.00,VWS V14.01,2013-09-02 15:18:00,
2013-09-02 08:19:00,69.3,60.3,29.89,WNW,294,1.0,0.0,73,0.00,,BKN045,0.00,VWS V14.01,2013-09-02 15:19:00,
2013-09-02 08:20:00,69.5,60.5,29.89,NW,310,0.0,0.0,73,0.00,,FEW085,0.00,VWS V14.01,2013-09-02 15:20:00,
2013-09-02 08:21:00,69.0,60.4,29.89,NW,311,0.0,0.0,74,0.00,,BKN045,0.00,VWS V14.01,2013-09-02 15:21:00,
2013-09-02 08:22:00,69.0,60.4,29.89,NW,311,0.0,0.0,74,0.00,,BKN045,0.00,VWS V14.01,2013-09-02 15:22:00,
2013-09-02 08:23:00,69.0,60.8,29.89,NW,310,0.0,0.0,75,0.00,,BKN045,0.00,VWS V14.01,2013-09-02 15:23:00,
2013-09-02 08:24:00,69.0,60.8,29.89,NW,310,0.0,0.0,75,0.00,,BKN045,0.00,VWS V14.01,2013-09-02 15:24:00,
2013-09-02 08:25:00,69.0,60.8,29.89,NW,310,0.0,0.0,75,0.00,,CLR,0.00,VWS V14.01,2013-09-02 15:25:00,
2013-09-02 08:26:00,69.1,60.8,29.89,WNW,298,0.0,0.0,75,0.00,,BKN045,0.00,VWS V14.01,2013-09-02 15:26:00,
2013-09-02 08:27:00,69.2,61.0,29.89,WNW,299,0.0,0.0,75,0.00,,BKN045,0.00,VWS V14.01,2013-09-02 15:27:00,
2013-09-02 08:28:00,69.4,60.8,29.89,NW,320,1.0,0.0,74,0.00,,BKN045,0.00,VWS V14.01,2013-09-02 15:28:00,
2013-09-02 08:29:00,69.5,60.5,29.89,NNW,329,0.0,0.0,73,0.00,,BKN045,0.00,VWS V14.01,2013-09-02 15:29:00,
2013-09-02 08:30:00,69.3,60.7,29.89,WNW,300,0.0,0.0,74,0.00,,CLR,0.00,VWS V14.01,2013-09-02 15:30:00,
2013-09-02 08:31:00,69.7,60.3,29.89,NW,317,1.0,0.0,72,0.00,,BKN045,0.00,VWS V14.01,2013-09-02 15:31:00,
2013-09-02 08:32:00,69.7,60.7,29.89,NW,325,0.0,0.0,73,0.00,,BKN045,0.00,VWS V14.01,2013-09-02 15:32:00,
2013-09-02 08:33:00,69.8,60.8,29.89,NNE,12,2.0,0.0,73,0.00,,BKN045,0.00,VWS V14.01,2013-09-02 15:33:00,
2013-09-02 08:34:00,69.9,60.9,29.89,NNE,32,0.0,0.0,73,0.00,,BKN045,0.00,VWS V14.01,2013-09-02 15:34:00,
2013-09-02 08:35:00,69.7,60.7,29.89,North,11,2.0,0.0,73,0.00,,CLR,0.00,VWS V14.01,2013-09-02 15:35:00,
2013-09-02 08:36:00,70.1,60.7,29.89,WNW,291,1.0,0.0,72,0.00,,BKN045,0.00,VWS V14.01,2013-09-02 15:36:00,
2013-09-02 08:37:00,70.1,60.3,29.89,NE,43,0.0,0.0,71,0.00,,BKN045,0.00,VWS V14.01,2013-09-02 15:37:00,
2013-09-02 08:38:00,70.1,60.3,29.89,NW,311,2.0,0.0,71,0.00,,BKN045,0.00,VWS V14.01,2013-09-02 15:38:00,
2013-09-02 08:39:00,70.1,60.7,29.89,SW,230,2.0,0.0,72,0.00,,BKN045,0.00,VWS V14.01,2013-09-02 15:39:00,
2013-09-02 08:40:00,70.1,60.3,29.89,NE,48,0.0,0.0,71,0.00,,CLR,0.00,VWS V14.01,2013-09-02 15:40:00,
2013-09-02 08:41:00,70.1,60.3,29.89,NW,321,0.0,0.0,71,0.00,,BKN045,0.00,VWS V14.01,2013-09-02 15:41:00,
2013-09-02 08:42:00,70.1,60.3,29.89,NW,322,0.0,0.0,71,0.00,,BKN045,0.00,VWS V14.01,2013-09-02 15:42:00,
2013-09-02 08:43:00,70.2,60.4,29.89,NW,317,0.0,0.0,71,0.00,,BKN045,0.00,VWS V14.01,2013-09-02 15:43:00,
2013-09-02 08:44:00,70.1,60.3,29.89,WNW,300,0.0,0.0,71,0.00,,BKN045,0.00,VWS V14.01,2013-09-02 15:44:00,
2013-09-02 08:45:00,70.1,60.3,29.89,NW,320,0.0,0.0,71,0.00,,CLR,0.00,VWS V14.01,2013-09-02 15:45:00,
2013-09-02 08:46:00,69.9,59.7,29.89,NW,321,2.0,0.0,70,0.00,,BKN045,0.00,VWS V14.01,2013-09-02 15:46:00,
2013-09-02 08:47:00,69.8,60.0,29.89,NW,317,2.0,0.0,71,0.00,,BKN045,0.00,VWS V14.01,2013-09-02 15:47:00,
2013-09-02 08:48:00,69.6,59.8,29.88,NNW,331,0.0,0.0,71,0.00,,BKN045,0.00,VWS V14.01,2013-09-02 15:48:00,
2013-09-02 08:49:00,69.5,59.7,29.88,NNW,335,1.0,0.0,71,0.00,,BKN045,0.00,VWS V14.01,2013-09-02 15:49:00,
2013-09-02 08:50:00,69.7,59.9,29.88,NNW,329,1.0,0.0,71,0.00,,CLR,0.00,VWS V14.01,2013-09-02 15:50:00,
2013-09-02 08:51:00,69.4,60.0,29.88,WNW,282,0.0,0.0,72,0.00,,BKN045,0.00,VWS V14.01,2013-09-02 15:51:00,
2013-09-02 08:52:00,69.4,60.0,29.89,WNW,289,0.0,0.0,72,0.00,,BKN045,0.00,VWS V14.01,2013-09-02 15:52:00,
2013-09-02 08:53:00,69.4,60.0,29.89,WNW,290,0.0,0.0,72,0.00,,BKN045,0.00,VWS V14.01,2013-09-02 15:53:00,
2013-09-02 08:54:00,69.4,60.0,29.89,WNW,290,0.0,0.0,72,0.00,,BKN045,0.00,VWS V14.01,2013-09-02 15:54:00,
2013-09-02 08:55:00,69.4,60.0,29.89,WNW,290,0.0,0.0,72,0.00,,CLR,0.00,VWS V14.01,2013-09-02 15:55:00,
2013-09-02 08:56:00,69.6,60.2,29.89,WNW,289,0.0,0.0,72,0.00,,BKN045,0.00,VWS V14.01,2013-09-02 15:56:00,
2013-09-02 08:57:00,69.6,60.6,29.89,WNW,290,0.0,0.0,73,0.00,,BKN045,0.00,VWS V14.01,2013-09-02 15:57:00,
2013-09-02 08:58:00,69.6,60.2,29.89,West,264,0.0,0.0,72,0.00,,BKN045,0.00,VWS V14.01,2013-09-02 15:58:00,
2013-09-02 08:59:00,69.6,60.2,29.89,WSW,241,0.0,0.0,72,0.00,,BKN045,0.00,VWS V14.01,2013-09-02 15:59:00,
2013-09-02 09:00:00,69.6,60.2,29.89,WNW,289,0.0,0.0,72,0.00,,CLR,0.00,VWS V14.01,2013-09-02 16:00:00,
2013-09-02 09:01:00,69.6,60.2,29.89,SSW,194,2.0,0.0,72,0.00,,BKN045,0.00,VWS V14.01,2013-09-02 16:01:00,
2013-09-02 09:02:00,69.5,60.1,29.89,SSW,196,0.0,0.0,72,0.00,,BKN045,0.00,VWS V14.01,2013-09-02 16:02:00,
2013-09-02 09:03:00,69.5,60.1,29.89,SSW,196,0.0,0.0,72,0.00,,BKN045,0.00,VWS V14.01,2013-09-02 16:03:00,
2013-09-02 09:04:00,69.4,60.0,29.89,NW,311,1.0,0.0,72,0.00,,BKN045,0.00,VWS V14.01,2013-09-02 16:04:00,
2013-09-02 09:05:00,69.5,60.1,29.89,SSW,196,0.0,0.0,72,0.00,,FEW095,0.00,VWS V14.01,2013-09-02 16:05:00,
2013-09-02 09:06:00,69.4,60.0,29.89,NW,311,0.0,0.0,72,0.00,,BKN045,0.00,VWS V14.01,2013-09-02 16:06:00,
2013-09-02 09:07:00,69.5,60.5,29.89,NW,311,0.0,0.0,73,0.00,,BKN045,0.00,VWS V14.01,2013-09-02 16:07:00,
2013-09-02 09:08:00,69.6,60.6,29.89,NW,320,0.0,0.0,73,0.00,,BKN045,0.00,VWS V14.01,2013-09-02 16:08:00,
2013-09-02 09:09:00,69.7,60.7,29.89,NNW,345,1.0,0.0,73,0.00,,BKN045,0.00,VWS V14.01,2013-09-02 16:09:00,
2013-09-02 09:10:00,69.5,60.5,29.89,NW,311,0.0,0.0,73,0.00,,FEW095,0.00,VWS V14.01,2013-09-02 16:10:00,
2013-09-02 09:11:00,69.9,60.1,29.89,NNW,345,0.0,0.0,71,0.00,,BKN045,0.00,VWS V14.01,2013-09-02 16:11:00,
2013-09-02 09:12:00,70.0,60.6,29.89,NNW,345,0.0,0.0,72,0.00,,BKN045,0.00,VWS V14.01,2013-09-02 16:12:00,
2013-09-02 09:13:00,70.1,60.7,29.89,NNW,345,0.0,0.0,72,0.00,,BKN045,0.00,VWS V14.01,2013-09-02 16:13:00,
2013-09-02 09:14:00,70.1,60.3,29.89,NNW,342,1.0,0.0,71,0.00,,BKN045,0.00,VWS V14.01,2013-09-02 16:14:00,
2013-09-02 09:15:00,70.0,60.6,29.89,NNW,345,0.0,0.0,72,0.00,,FEW095,0.00,VWS V14.01,2013-09-02 16:15:00,
2013-09-02 09:16:00,70.0,60.2,29.89,NNW,334,0.0,0.0,71,0.00,,BKN045,0.00,VWS V14.01,2013-09-02 16:16:00,
2013-09-02 09:17:00,70.1,60.7,29.89,NNW,331,0.0,0.0,72,0.00,,BKN045,0.00,VWS V14.01,2013-09-02 16:17:00,
2013-09-02 09:18:00,70.1,61.0,29.89,NNW,331,0.0,0.0,73,0.00,,BKN045,0.00,VWS V14.01,2013-09-02 16:18:00,
2013-09-02 09:19:00,70.2,61.2,29.89,NNW,331,0.0,0.0,73,0.00,,BKN045,0.00,VWS V14.01,2013-09-02 16:19:00,
2013-09-02 09:20:00,70.0,60.6,29.89,NNW,331,0.0,0.0,72,0.00,,FEW095,0.00,VWS V14.01,2013-09-02 16:20:00,
2013-09-02 09:21:00,70.5,60.7,29.89,NE,37,2.0,0.0,71,0.00,,BKN045,0.00,VWS V14.01,2013-09-02 16:21:00,
2013-09-02 09:22:00,70.6,60.3,29.89,NE,37,0.0,0.0,70,0.00,,BKN045,0.00,VWS V14.01,2013-09-02 16:22:00,
2013-09-02 09:23:00,70.7,60.5,29.89,WNW,303,1.0,0.0,70,0.00,,BKN045,0.00,VWS V14.01,2013-09-02 16:23:00,
2013-09-02 09:24:00,70.8,60.5,29.89,WNW,303,0.0,0.0,70,0.00,,BKN045,0.00,VWS V14.01,2013-09-02 16:24:00,
2013-09-02 09:25:00,70.7,60.5,29.89,NW,310,0.0,0.0,70,0.00,,BKN095,0.00,VWS V14.01,2013-09-02 16:25:00,
2013-09-02 09:26:00,71.0,60.7,29.89,NE,44,1.0,0.0,70,0.00,,BKN045,0.00,VWS V14.01,2013-09-02 16:26:00,
2013-09-02 09:27:00,71.0,60.7,29.89,NE,51,1.0,0.0,70,0.00,,BKN045,0.00,VWS V14.01,2013-09-02 16:27:00,
2013-09-02 09:28:00,71.0,60.3,29.89,NE,50,0.0,0.0,69,0.00,,BKN045,0.00,VWS V14.01,2013-09-02 16:28:00,
2013-09-02 09:29:00,71.0,60.7,29.89,NNE,17,2.0,0.0,70,0.00,,BKN045,0.00,VWS V14.01,2013-09-02 16:29:00,
2013-09-02 09:30:00,71.0,60.3,29.89,NE,50,1.0,0.0,69,0.00,,BKN095,0.00,VWS V14.01,2013-09-02 16:30:00,
2013-09-02 09:31:00,71.1,60.8,29.89,NNE,17,0.0,0.0,70,0.00,,BKN045,0.00,VWS V14.01,2013-09-02 16:31:00,
2013-09-02 09:32:00,71.2,60.9,29.89,NNE,17,0.0,0.0,70,0.00,,BKN045,0.00,VWS V14.01,2013-09-02 16:32:00,
2013-09-02 09:33:00,71.3,61.0,29.89,ESE,108,0.0,0.0,70,0.00,,BKN045,0.00,VWS V14.01,2013-09-02 16:33:00,
2013-09-02 09:34:00,71.5,60.8,29.89,ESE,108,0.0,0.0,69,0.00,,BKN045,0.00,VWS V14.01,2013-09-02 16:34:00,
2013-09-02 09:35:00,71.3,61.0,29.89,NNE,17,0.0,0.0,70,0.00,,BKN095,0.00,VWS V14.01,2013-09-02 16:35:00,
2013-09-02 09:36:00,71.6,61.3,29.89,ESE,108,0.0,0.0,70,0.00,,BKN045,0.00,VWS V14.01,2013-09-02 16:36:00,
2013-09-02 09:37:00,71.6,60.9,29.89,NNE,13,0.0,0.0,69,0.00,,BKN045,0.00,VWS V14.01,2013-09-02 16:37:00,
2013-09-02 09:38:00,71.7,61.8,29.89,NNE,16,0.0,0.0,71,0.00,,BKN045,0.00,VWS V14.01,2013-09-02 16:38:00,
2013-09-02 09:39:00,71.7,61.0,29.89,ENE,70,0.0,0.0,69,0.00,,BKN045,0.00,VWS V14.01,2013-09-02 16:39:00,
2013-09-02 09:40:00,71.7,61.8,29.89,North,355,0.0,0.0,71,0.00,,BKN095,0.00,VWS V14.01,2013-09-02 16:40:00,
2013-09-02 09:41:00,71.8,61.1,29.89,NW,312,1.0,0.0,69,0.00,,BKN045,0.00,VWS V14.01,2013-09-02 16:41:00,
2013-09-02 09:42:00,71.7,60.6,29.89,NNW,334,1.0,0.0,68,0.00,,BKN045,0.00,VWS V14.01,2013-09-02 16:42:00,
2013-09-02 09:43:00,71.5,60.8,29.89,NNW,331,2.0,0.0,69,0.00,,BKN045,0.00,VWS V14.01,2013-09-02 16:43:00,
2013-09-02 09:44:00,71.5,60.4,29.89,West,280,1.0,0.0,68,0.00,,BKN045,0.00,VWS V14.01,2013-09-02 16:44:00,
2013-09-02 09:45:00,71.6,60.9,29.89,NW,322,0.0,0.0,69,0.00,,BKN095,0.00,VWS V14.01,2013-09-02 16:45:00,
2013-09-02 09:46:00,71.3,60.6,29.89,NW,313,1.0,0.0,69,0.00,,BKN045,0.00,VWS V14.01,2013-09-02 16:46:00,
2013-09-02 09:47:00,71.3,60.6,29.89,NE,34,0.0,0.0,69,0.00,,BKN045,0.00,VWS V14.01,2013-09-02 16:47:00,
2013-09-02 09:48:00,71.3,60.6,29.89,NE,34,0.0,0.0,69,0.00,,BKN045,0.00,VWS V14.01,2013-09-02 16:48:00,
2013-09-02 09:49:00,71.4,60.7,29.89,NE,34,0.0,0.0,69,0.00,,BKN045,0.00,VWS V14.01,2013-09-02 16:49:00,
2013-09-02 09:50:00,71.2,60.5,29.89,NNE,32,0.0,0.0,69,0.00,,BKN095,0.00,VWS V14.01,2013-09-02 16:50:00,
2013-09-02 09:51:00,71.5,60.8,29.89,NNE,32,0.0,0.0,69,0.00,,BKN045,0.00,VWS V14.01,2013-09-02 16:51:00,
2013-09-02 09:52:00,71.6,60.9,29.89,NE,34,0.0,0.0,69,0.00,,BKN045,0.00,VWS V14.01,2013-09-02 16:52:00,
2013-09-02 09:53:00,71.7,61.0,29.89,NE,34,0.0,0.0,69,0.00,,BKN045,0.00,VWS V14.01,2013-09-02 16:53:00,
2013-09-02 09:54:00,71.7,61.4,29.89,NNE,33,2.0,0.0,70,0.00,,BKN045,0.00,VWS V14.01,2013-09-02 16:54:00,
2013-09-02 09:55:00,71.6,60.9,29.89,NE,34,0.0,0.0,69,0.00,,BKN095,0.00,VWS V14.01,2013-09-02 16:55:00,
2013-09-02 09:56:00,71.5,60.4,29.89,NE,34,1.0,0.0,68,0.00,,BKN045,0.00,VWS V14.01,2013-09-02 16:56:00,
2013-09-02 09:57:00,71.4,60.7,29.89,NE,34,0.0,0.0,69,0.00,,BKN045,0.00,VWS V14.01,2013-09-02 16:57:00,
2013-09-02 09:58:00,71.2,60.5,29.89,NNE,32,0.0,0.0,69,0.00,,BKN045,0.00,VWS V14.01,2013-09-02 16:58:00,
2013-09-02 09:59:00,71.1,60.4,29.89,NNE,32,0.0,0.0,69,0.00,,BKN045,0.00,VWS V14.01,2013-09-02 16:59:00,
2013-09-02 10:00:00,71.3,60.6,29.89,NNE,32,0.0,0.0,69,0.00,,BKN095,0.00,VWS V14.01,2013-09-02 17:00:00,
2013-09-02 10:01:00,71.1,60.4,29.89,NE,34,0.0,0.0,69,0.00,,BKN045,0.00,VWS V14.01,2013-09-02 17:01:00,
2013-09-02 10:02:00,71.1,60.8,29.89,NE,34,0.0,0.0,70,0.00,,BKN045,0.00,VWS V14.01,2013-09-02 17:02:00,
2013-09-02 10:03:00,71.1,60.4,29.89,NNE,33,0.0,0.0,69,0.00,,BKN045,0.00,VWS V14.01,2013-09-02 17:03:00,
2013-09-02 10:04:00,71.2,60.5,29.89,NE,34,0.0,0.0,69,0.00,,BKN045,0.00,VWS V14.01,2013-09-02 17:04:00,
2013-09-02 10:05:00,71.1,60.4,29.89,NNE,33,0.0,0.0,69,0.00,,OVC095,0.00,VWS V14.01,2013-09-02 17:05:00,
2013-09-02 10:06:00,71.3,61.0,29.89,NE,34,0.0,0.0,70,0.00,,BKN045,0.00,VWS V14.01,2013-09-02 17:06:00,
2013-09-02 10:07:00,71.4,60.7,29.89,NNE,33,0.0,0.0,69,0.00,,BKN045,0.00,VWS V14.01,2013-09-02 17:07:00,
2013-09-02 10:08:00,71.4,60.7,29.89,NE,34,0.0,0.0,69,0.00,,BKN045,0.00,VWS V14.01,2013-09-02 17:08:00,
2013-09-02 10:09:00,71.5,60.8,29.89,NNE,33,0.0,0.0,69,0.00,,BKN045,0.00,VWS V14.01,2013-09-02 17:09:00,
2013-09-02 10:10:00,71.4,60.7,29.89,NE,34,0.0,0.0,69,0.00,,OVC095,0.00,VWS V14.01,2013-09-02 17:10:00,
2013-09-02 10:11:00,71.7,61.0,29.88,NNE,32,0.0,0.0,69,0.00,,BKN045,0.00,VWS V14.01,2013-09-02 17:11:00,
2013-09-02 10:12:00,71.8,61.1,29.88,NE,35,0.0,0.0,69,0.00,,BKN045,0.00,VWS V14.01,2013-09-02 17:12:00,
2013-09-02 10:13:00,71.9,60.8,29.89,ENE,69,0.0,0.0,68,0.00,,BKN045,0.00,VWS V14.01,2013-09-02 17:13:00,
2013-09-02 10:14:00,71.9,60.8,29.88,ENE,73,0.0,0.0,68,0.00,,BKN045,0.00,VWS V14.01,2013-09-02 17:14:00,
2013-09-02 10:15:00,71.8,60.7,29.89,NE,34,0.0,0.0,68,0.00,,OVC095,0.00,VWS V14.01,2013-09-02 17:15:00,
2013-09-02 10:16:00,71.9,60.8,29.88,South,171,0.0,0.0,68,0.00,,BKN045,0.00,VWS V14.01,2013-09-02 17:16:00,
2013-09-02 10:17:00,71.9,61.2,29.89,South,171,0.0,0.0,69,0.00,,BKN045,0.00,VWS V14.01,2013-09-02 17:17:00,
2013-09-02 10:18:00,72.0,61.3,29.89,South,171,0.0,0.0,69,0.00,,BKN045,0.00,VWS V14.01,2013-09-02 17:18:00,
2013-09-02 10:19:00,72.0,61.3,29.89,SSW,205,2.0,0.0,69,0.00,,BKN045,0.00,VWS V14.01,2013-09-02 17:19:00,
2013-09-02 10:20:00,71.9,61.2,29.89,South,171,0.0,0.0,69,0.00,,OVC095,0.00,VWS V14.01,2013-09-02 17:20:00,
2013-09-02 10:21:00,72.1,60.5,29.89,SW,217,0.0,0.0,67,0.00,,BKN045,0.00,VWS V14.01,2013-09-02 17:21:00,
2013-09-02 10:22:00,72.0,60.5,29.89,South,191,0.0,0.0,67,0.00,,BKN045,0.00,VWS V14.01,2013-09-02 17:22:00,
2013-09-02 10:23:00,72.0,60.9,29.89,South,191,0.0,0.0,68,0.00,,BKN045,0.00,VWS V14.01,2013-09-02 17:23:00,
2013-09-02 10:24:00,72.0,60.9,29.89,South,191,0.0,0.0,68,0.00,,BKN045,0.00,VWS V14.01,2013-09-02 17:24:00,
2013-09-02 10:25:00,72.0,60.5,29.89,South,191,0.0,0.0,67,0.00,,OVC095,0.00,VWS V14.01,2013-09-02 17:25:00,
2013-09-02 10:26:00,72.0,60.9,29.88,South,191,0.0,0.0,68,0.00,,BKN045,0.00,VWS V14.01,2013-09-02 17:26:00,
2013-09-02 10:27:00,72.1,61.0,29.89,South,191,0.0,0.0,68,0.00,,BKN045,0.00,VWS V14.01,2013-09-02 17:27:00,
2013-09-02 10:28:00,72.3,61.2,29.89,SSW,192,0.0,0.0,68,0.00,,BKN045,0.00,VWS V14.01,2013-09-02 17:28:00,
2013-09-02 10:29:00,72.4,61.2,29.88,South,179,0.0,0.0,68,0.00,,BKN045,0.00,VWS V14.01,2013-09-02 17:29:00,
2013-09-02 10:30:00,72.2,61.1,29.89,South,191,0.0,0.0,68,0.00,,OVC095,0.00,VWS V14.01,2013-09-02 17:30:00,
2013-09-02 10:31:00,72.6,61.0,29.88,SSE,148,1.0,0.0,67,0.00,,BKN045,0.00,VWS V14.01,2013-09-02 17:31:00,
2013-09-02 10:32:00,72.6,61.0,29.88,SSE,148,0.0,0.0,67,0.00,,BKN045,0.00,VWS V14.01,2013-09-02 17:32:00,
2013-09-02 10:33:00,72.7,61.5,29.88,SSE,148,0.0,0.0,68,0.00,,BKN045,0.00,VWS V14.01,2013-09-02 17:33:00,
2013-09-02 10:34:00,72.7,61.1,29.88,East,101,0.0,0.0,67,0.00,,BKN045,0.00,VWS V14.01,2013-09-02 17:34:00,
2013-09-02 10:35:00,72.6,61.0,29.88,SSE,148,0.0,0.0,67,0.00,,OVC095,0.00,VWS V14.01,2013-09-02 17:35:00,
2013-09-02 10:36:00,72.9,61.3,29.88,East,80,0.0,0.0,67,0.00,,BKN045,0.00,VWS V14.01,2013-09-02 17:36:00,
2013-09-02 10:37:00,73.1,61.5,29.88,East,88,1.0,0.0,67,0.00,,BKN045,0.00,VWS V14.01,2013-09-02 17:37:00,
2013-09-02 10:38:00,73.2,61.6,29.88,ESE,107,0.0,0.0,67,0.00,,BKN045,0.00,VWS V14.01,2013-09-02 17:38:00,
2013-09-02 10:39:00,73.4,61.8,29.88,East,87,2.0,0.0,67,0.00,,BKN045,0.00,VWS V14.01,2013-09-02 17:39:00,
2013-09-02 10:40:00,73.1,61.9,29.88,ESE,102,1.0,0.0,68,0.00,,OVC095,0.00,VWS V14.01,2013-09-02 17:40:00,
2013-09-02 10:41:00,73.6,61.5,29.88,East,90,0.0,0.0,66,0.00,,BKN045,0.00,VWS V14.01,2013-09-02 17:41:00,
2013-09-02 10:42:00,73.7,61.7,29.88,East,98,2.0,0.0,66,0.00,,BKN045,0.00,VWS V14.01,2013-09-02 17:42:00,
2013-09-02 10:43:00,73.7,61.7,29.88,ESE,118,0.0,0.0,66,0.00,,BKN045,0.00,VWS V14.01,2013-09-02 17:43:00,
2013-09-02 10:44:00,73.8,61.7,29.88,ESE,118,1.0,0.0,66,0.00,,BKN045,0.00,VWS V14.01,2013-09-02 17:44:00,
2013-09-02 10:45:00,73.7,61.7,29.88,ESE,102,2.0,0.0,66,0.00,,OVC095,0.00,VWS V14.01,2013-09-02 17:45:00,
2013-09-02 10:46:00,74.0,61.9,29.88,ESE,123,0.0,0.0,66,0.00,,BKN045,0.00,VWS V14.01,2013-09-02 17:46:00,
2013-09-02 10:47:00,74.1,62.0,29.88,ESE,123,0.0,0.0,66,0.00,,BKN045,0.00,VWS V14.01,2013-09-02 17:47:00,
2013-09-02 10:48:00,74.3,62.2,29.88,ESE,111,2.0,0.0,66,0.00,,BKN045,0.00,VWS V14.01,2013-09-02 17:48:00,
2013-09-02 10:49:00,74.5,62.0,29.88,East,98,0.0,0.0,65,0.00,,BKN045,0.00,VWS V14.01,2013-09-02 17:49:00,
2013-09-02 10:50:00,74.2,62.1,29.88,ESE,107,2.0,0.0,66,0.00,,OVC095,0.00,VWS V14.01,2013-09-02 17:50:00,
2013-09-02 10:51:00,74.8,62.7,29.88,East,96,0.0,0.0,66,0.00,,BKN045,0.00,VWS V14.01,2013-09-02 17:51:00,
2013-09-02 10:52:00,74.9,63.2,29.88,ESE,115,0.0,0.0,67,0.00,,BKN045,0.00,VWS V14.01,2013-09-02 17:52:00,
2013-09-02 10:53:00,75.2,63.1,29.88,ESE,116,0.0,0.0,66,0.00,,BKN045,0.00,VWS V14.01,2013-09-02 17:53:00,
2013-09-02 10:54:00,75.3,62.7,29.88,ESE,115,0.0,0.0,65,0.00,,BKN045,0.00,VWS V14.01,2013-09-02 17:54:00,
2013-09-02 10:55:00,75.1,63.4,29.88,ESE,116,0.0,0.0,67,0.00,,OVC095,0.00,VWS V14.01,2013-09-02 17:55:00,
2013-09-02 10:56:00,75.7,62.7,29.88,ESE,115,0.0,0.0,64,0.00,,BKN045,0.00,VWS V14.01,2013-09-02 17:56:00,
2013-09-02 10:57:00,75.9,62.9,29.88,ESE,115,0.0,0.0,64,0.00,,BKN045,0.00,VWS V14.01,2013-09-02 17:57:00,
2013-09-02 10:58:00,76.2,62.7,29.88,ESE,107,1.0,0.0,63,0.00,,BKN045,0.00,VWS V14.01,2013-09-02 17:58:00,
2013-09-02 10:59:00,76.2,62.2,29.88,ESE,102,2.0,0.0,62,0.00,,BKN045,0.00,VWS V14.01,2013-09-02 17:59:00,
2013-09-02 11:00:00,76.0,63.0,29.88,ESE,116,0.0,0.0,64,0.00,,OVC095,0.00,VWS V14.01,2013-09-02 18:00:00,
2013-09-02 11:01:00,76.1,62.2,29.88,ENE,70,1.0,0.0,62,0.00,,BKN045,0.00,VWS V14.01,2013-09-02 18:01:00,
2013-09-02 11:02:00,76.1,62.6,29.88,NW,313,4.0,0.0,63,0.00,,BKN045,0.00,VWS V14.01,2013-09-02 18:02:00,
2013-09-02 11:03:00,76.1,62.2,29.88,NNW,327,3.0,0.0,62,0.00,,BKN045,0.00,VWS V14.01,2013-09-02 18:03:00,
2013-09-02 11:04:00,76.1,62.2,29.88,NW,309,2.0,0.0,62,0.00,,BKN045,0.00,VWS V14.01,2013-09-02 18:04:00,
2013-09-02 11:05:00,76.1,62.6,29.88,NE,36,2.0,0.0,63,0.00,,OVC047,0.00,VWS V14.01,2013-09-02 18:05:00,
2013-09-02 11:06:00,76.1,62.2,29.88,WNW,298,2.0,0.0,62,0.00,,BKN045,0.00,VWS V14.01,2013-09-02 18:06:00,
2013-09-02 11:07:00,76.2,63.2,29.88,West,261,1.0,0.0,64,0.00,,BKN045,0.00,VWS V14.01,2013-09-02 18:07:00,
2013-09-02 11:08:00,76.4,62.4,29.88,NNW,340,1.0,0.0,62,0.00,,BKN045,0.00,VWS V14.01,2013-09-02 18:08:00,
2013-09-02 11:09:00,76.6,62.6,29.88,WNW,302,3.0,0.0,62,0.00,,BKN045,0.00,VWS V14.01,2013-09-02 18:09:00,
2013-09-02 11:10:00,76.3,63.2,29.88,NNW,331,1.0,0.0,64,0.00,,OVC047,0.00,VWS V14.01,2013-09-02 18:10:00,
2013-09-02 11:11:00,76.8,62.3,29.87,East,84,3.0,0.0,61,0.00,,BKN045,0.00,VWS V14.01,2013-09-02 18:11:00,
2013-09-02 11:12:00,76.7,62.2,29.88,NW,320,3.0,0.0,61,0.00,,BKN045,0.00,VWS V14.01,2013-09-02 18:12:00,
2013-09-02 11:13:00,76.7,62.2,29.88,NNE,12,4.0,0.0,61,0.00,,BKN045,0.00,VWS V14.01,2013-09-02 18:13:00,
2013-09-02 11:14:00,76.7,62.7,29.88,NNW,337,2.0,0.0,62,0.00,,BKN045,0.00,VWS V14.01,2013-09-02 18:14:00,
2013-09-02 11:15:00,76.7,62.7,29.88,NW,319,4.0,0.0,62,0.00,,OVC047,0.00,VWS V14.01,2013-09-02 18:15:00,
2013-09-02 11:16:00,76.7,62.2,29.88,WNW,298,2.0,0.0,61,0.00,,BKN045,0.00,VWS V14.01,2013-09-02 18:16:00,
2013-09-02 11:17:00,76.6,62.2,29.88,WNW,282,3.0,0.0,61,0.00,,BKN045,0.00,VWS V14.01,2013-09-02 18:17:00,
2013-09-02 11:18:00,76.5,62.1,29.88,South,175,1.0,0.0,61,0.00,,BKN045,0.00,VWS V14.01,2013-09-02 18:18:00,
2013-09-02 11:19:00,76.4,62.0,29.88,WNW,300,2.0,0.0,61,0.00,,BKN045,0.00,VWS V14.01,2013-09-02 18:19:00,
2013-09-02 11:20:00,76.6,62.2,29.88,West,268,2.0,0.0,61,0.00,,OVC047,0.00,VWS V14.01,2013-09-02 18:20:00,
2013-09-02 11:21:00,76.2,62.2,29.88,WNW,292,1.0,0.0,62,0.00,,BKN045,0.00,VWS V14.01,2013-09-02 18:21:00,
2013-09-02 11:22:00,76.1,62.6,29.88,WNW,290,2.0,0.0,63,0.00,,BKN045,0.00,VWS V14.01,2013-09-02 18:22:00,
2013-09-02 11:23:00,76.0,62.0,29.88,NW,307,1.0,0.0,62,0.00,,BKN045,0.00,VWS V14.01,2013-09-02 18:23:00,
2013-09-02 11:24:00,75.9,62.0,29.88,NW,309,0.0,0.0,62,0.00,,BKN045,0.00,VWS V14.01,2013-09-02 18:24:00,
2013-09-02 11:25:00,76.1,62.6,29.88,WNW,282,3.0,0.0,63,0.00,,BKN045,0.00,VWS V14.01,2013-09-02 18:25:00,
2013-09-02 11:26:00,75.9,62.4,29.88,NE,52,0.0,0.0,63,0.00,,BKN045,0.00,VWS V14.01,2013-09-02 18:26:00,
2013-09-02 11:27:00,75.9,62.4,29.88,SSE,148,0.0,0.0,63,0.00,,BKN045,0.00,VWS V14.01,2013-09-02 18:27:00,
2013-09-02 11:30:00,76.0,62.5,29.88,WNW,298,1.0,0.0,63,0.00,,BKN045,0.00,VWS V14.01,2013-09-02 18:30:00,
2013-09-02 11:37:00,75.9,62.0,29.88,ENE,76,1.0,0.0,62,0.00,,BKN045,0.00,VWS V14.01,2013-09-02 18:37:00,
2013-09-02 11:42:00,76.0,62.5,29.88,NNW,328,0.0,0.0,63,0.00,,BKN045,0.00,VWS V14.01,2013-09-02 18:42:00,
2013-09-02 11:47:00,76.3,62.3,29.88,East,88,0.0,0.0,62,0.00,,OVC070,0.00,VWS V14.01,2013-09-02 18:47:00,
2013-09-02 11:52:00,76.3,62.3,29.88,ENE,75,1.0,0.0,62,0.00,,OVC070,0.00,VWS V14.01,2013-09-02 18:52:00,
2013-09-02 11:57:00,76.0,63.4,29.88,ESE,110,1.0,0.0,65,0.00,,OVC070,0.00,VWS V14.01,2013-09-02 18:57:00,
2013-09-02 12:02:00,74.5,62.4,29.88,SE,133,4.0,0.0,66,0.00,,OVC070,0.00,VWS V14.01,2013-09-02 19:02:00,
2013-09-02 12:07:00,73.3,62.1,29.89,ESE,118,8.0,0.0,68,0.00,,OVC075,0.00,VWS V14.01,2013-09-02 19:07:00,
2013-09-02 12:12:00,72.6,61.9,29.89,East,85,3.0,0.0,69,0.00,,OVC075,0.00,VWS V14.01,2013-09-02 19:12:00,
2013-09-02 12:17:00,72.4,62.5,29.89,SE,125,0.0,0.0,71,0.00,,OVC075,0.00,VWS V14.01,2013-09-02 19:17:00,
2013-09-02 12:22:00,72.2,62.3,29.89,NE,36,4.0,0.0,71,0.00,,OVC075,0.00,VWS V14.01,2013-09-02 19:22:00,
2013-09-02 12:27:00,72.0,62.1,29.89,NE,54,6.0,0.0,71,0.00,,BKN075,0.00,VWS V14.01,2013-09-02 19:27:00,
2013-09-02 12:32:00,71.5,62.0,29.90,East,89,2.0,0.0,72,0.00,,BKN075,0.00,VWS V14.01,2013-09-02 19:32:00,
2013-09-02 12:37:00,71.1,62.4,29.91,NNE,23,5.0,0.0,74,0.00,,BKN075,0.00,VWS V14.01,2013-09-02 19:37:00,
2013-09-02 12:42:00,69.9,62.4,29.91,NE,49,3.0,0.0,77,0.00,,BKN075,0.00,VWS V14.01,2013-09-02 19:42:00,
2013-09-02 12:47:00,68.9,62.5,29.90,West,277,1.0,0.0,80,0.02,,OVC065,0.02,VWS V14.01,2013-09-02 19:47:00,
2013-09-02 12:52:00,68.6,63.2,29.91,NNE,26,0.0,0.0,83,0.04,,OVC065,0.04,VWS V14.01,2013-09-02 19:52:00,
2013-09-02 12:57:00,69.1,64.4,29.91,ESE,110,1.0,0.0,85,0.04,,OVC065,0.04,VWS V14.01,2013-09-02 19:57:00,
2013-09-02 13:02:00,69.4,63.0,29.91,East,85,0.0,0.0,80,0.04,,OVC065,0.04,VWS V14.01,2013-09-02 20:02:00,
2013-09-02 13:07:00,69.6,62.8,29.91,ESE,106,0.0,0.0,79,0.04,,OVC055,0.04,VWS V14.01,2013-09-02 20:07:00,
2013-09-02 13:12:00,69.6,62.1,29.91,ESE,105,4.0,0.0,77,0.04,,OVC055,0.04,VWS V14.01,2013-09-02 20:12:00,
2013-09-02 13:17:00,69.8,62.6,29.91,ESE,113,2.0,0.0,78,0.04,,OVC055,0.04,VWS V14.01,2013-09-02 20:17:00,
2013-09-02 13:22:00,70.0,63.2,29.91,East,101,0.0,0.0,79,0.04,,OVC055,0.04,VWS V14.01,2013-09-02 20:22:00,
2013-09-02 13:27:00,70.6,63.4,29.90,East,86,0.0,0.0,78,0.04,,OVC095,0.04,VWS V14.01,2013-09-02 20:27:00,
2013-09-02 13:32:00,71.4,63.8,29.90,ESE,121,2.0,0.0,77,0.04,,OVC095,0.04,VWS V14.01,2013-09-02 20:32:00,
2013-09-02 13:37:00,71.7,64.8,29.90,ESE,111,0.0,0.0,79,0.04,,OVC095,0.04,VWS V14.01,2013-09-02 20:37:00,
2013-09-02 13:42:00,72.6,63.8,29.90,SE,127,3.0,0.0,74,0.04,,OVC095,0.04,VWS V14.01,2013-09-02 20:42:00,
2013-09-02 13:47:00,72.3,63.2,29.90,ESE,123,5.0,0.0,73,0.02,,BKN095,0.04,VWS V14.01,2013-09-02 20:47:00,
2013-09-02 13:52:00,72.6,64.2,29.90,East,84,3.0,0.0,75,0.00,,BKN095,0.04,VWS V14.01,2013-09-02 20:52:00,
2013-09-02 13:57:00,72.7,63.5,29.90,ESE,107,2.0,0.0,73,0.00,,BKN095,0.04,VWS V14.01,2013-09-02 20:57:00,
2013-09-02 14:02:00,73.0,64.6,29.89,ESE,110,1.0,0.0,75,0.00,,BKN095,0.04,VWS V14.01,2013-09-02 21:02:00,
2013-09-02 14:07:00,73.2,63.2,29.89,ESE,113,6.0,0.0,71,0.00,,SCT050,0.04,VWS V14.01,2013-09-02 21:07:00,
2013-09-02 14:12:00,73.4,63.8,29.89,East,89,0.0,0.0,72,0.00,,SCT050,0.04,VWS V14.01,2013-09-02 21:12:00,
2013-09-02 14:17:00,74.0,63.2,29.89,ESE,109,1.0,0.0,69,0.00,,SCT050,0.04,VWS V14.01,2013-09-02 21:17:00,
2013-09-02 14:22:00,74.2,63.0,29.89,SW,220,3.0,0.0,68,0.00,,SCT050,0.04,VWS V14.01,2013-09-02 21:22:00,
2013-09-02 14:27:00,74.1,63.7,29.89,WSW,243,1.0,0.0,70,0.00,,SCT050,0.04,VWS V14.01,2013-09-02 21:27:00,
2013-09-02 14:32:00,74.6,64.2,29.89,ESE,107,0.0,0.0,70,0.00,,SCT050,0.04,VWS V14.01,2013-09-02 21:32:00,
2013-09-02 14:37:00,74.8,63.5,29.89,ESE,111,2.0,0.0,68,0.00,,SCT050,0.04,VWS V14.01,2013-09-02 21:37:00,
2013-09-02 14:42:00,75.0,63.7,29.88,NE,56,2.0,0.0,68,0.00,,SCT050,0.04,VWS V14.01,2013-09-02 21:42:00,
2013-09-02 14:47:00,75.6,64.3,29.88,ESE,105,3.0,0.0,68,0.00,,BKN050,0.04,VWS V14.01,2013-09-02 21:47:00,
2013-09-02 14:52:00,75.7,63.1,29.89,East,97,0.0,0.0,65,0.00,,BKN050,0.04,VWS V14.01,2013-09-02 21:52:00,
2013-09-02 14:57:00,76.2,63.6,29.88,East,101,4.0,0.0,65,0.00,,BKN050,0.04,VWS V14.01,2013-09-02 21:57:00,
2013-09-02 15:02:00,76.5,64.3,29.88,SSE,159,2.0,0.0,66,0.00,,BKN050,0.04,VWS V14.01,2013-09-02 22:02:00,
2013-09-02 15:07:00,77.0,63.0,29.88,ESE,112,4.0,0.0,62,0.00,,BKN050,0.04,VWS V14.01,2013-09-02 22:07:00,
2013-09-02 15:12:00,76.6,63.5,29.88,East,95,0.0,0.0,64,0.00,,BKN050,0.04,VWS V14.01,2013-09-02 22:12:00,
2013-09-02 15:17:00,76.9,62.9,29.88,SSW,200,0.0,0.0,62,0.00,,BKN050,0.04,VWS V14.01,2013-09-02 22:17:00,
2013-09-02 15:22:00,76.7,62.7,29.88,SW,215,1.0,0.0,62,0.00,,BKN050,0.04,VWS V14.01,2013-09-02 22:22:00,
2013-09-02 15:27:00,77.1,64.0,29.88,SE,130,0.0,0.0,64,0.00,,SCT090,0.04,VWS V14.01,2013-09-02 22:27:00,
2013-09-02 15:32:00,77.1,62.6,29.88,ESE,105,2.0,0.0,61,0.00,,SCT090,0.04,VWS V14.01,2013-09-02 22:32:00,
2013-09-02 15:37:00,76.5,63.0,29.88,East,84,1.0,0.0,63,0.00,,SCT090,0.04,VWS V14.01,2013-09-02 22:37:00,
2013-09-02 15:42:00,76.5,62.5,29.88,ENE,63,2.0,0.0,62,0.00,,SCT090,0.04,VWS V14.01,2013-09-02 22:42:00,
2013-09-02 15:47:00,76.2,62.7,29.88,East,85,2.0,0.0,63,0.00,,SCT090,0.04,VWS V14.01,2013-09-02 22:47:00,
2013-09-02 15:52:00,76.1,62.6,29.88,ENE,65,2.0,0.0,63,0.00,,SCT090,0.04,VWS V14.01,2013-09-02 22:52:00,
2013-09-02 15:57:00,76.1,62.2,29.87,ESE,115,1.0,0.0,62,0.00,,SCT090,0.04,VWS V14.01,2013-09-02 22:57:00,
2013-09-02 16:02:00,76.1,62.2,29.88,ESE,107,0.0,0.0,62,0.00,,SCT090,0.04,VWS V14.01,2013-09-02 23:02:00,
2013-09-02 16:07:00,75.9,62.0,29.87,East,95,1.0,0.0,62,0.00,,BKN090,0.04,VWS V14.01,2013-09-02 23:07:00,
2013-09-02 16:12:00,75.8,62.3,29.87,East,95,0.0,0.0,63,0.00,,BKN090,0.04,VWS V14.01,2013-09-02 23:12:00,
2013-09-02 16:17:00,75.5,62.0,29.87,East,101,0.0,0.0,63,0.00,,BKN090,0.04,VWS V14.01,2013-09-02 23:17:00,
2013-09-02 16:22:00,75.2,62.2,29.87,ESE,119,5.0,0.0,64,0.00,,BKN090,0.04,VWS V14.01,2013-09-02 23:22:00,
2013-09-02 16:27:00,75.2,63.1,29.87,East,90,1.0,0.0,66,0.00,,BKN090,0.04,VWS V14.01,2013-09-02 23:27:00,
2013-09-02 16:32:00,75.9,63.3,29.87,NW,313,0.0,0.0,65,0.00,,BKN090,0.04,VWS V14.01,2013-09-02 23:32:00,
2013-09-02 16:37:00,77.2,63.2,29.87,East,94,2.0,0.0,62,0.00,,BKN090,0.04,VWS V14.01,2013-09-02 23:37:00,
2013-09-02 16:42:00,77.0,63.0,29.87,ESE,103,3.0,0.0,62,0.00,,BKN090,0.04,VWS V14.01,2013-09-02 23:42:00,
2013-09-02 16:47:00,76.3,62.3,29.87,East,101,0.0,0.0,62,0.00,,SCT080,0.04,VWS V14.01,2013-09-02 23:47:00,
2013-09-02 16:52:00,76.1,62.6,29.87,SE,142,0.0,0.0,63,0.00,,SCT080,0.04,VWS V14.01,2013-09-02 23:52:00,
2013-09-02 16:57:00,76.2,63.1,29.87,SSE,163,0.0,0.0,64,0.00,,SCT080,0.04,VWS V14.01,2013-09-02 23:57:00,
2013-09-02 17:02:00,76.3,63.7,29.87,SSE,163,0.0,0.0,65,0.00,,SCT080,0.04,VWS V14.01,2013-09-03 00:02:00,
2013-09-02 17:07:00,76.1,62.2,29.87,ESE,103,2.0,0.0,62,0.00,,BKN080,0.04,VWS V14.01,2013-09-03 00:07:00,
2013-09-02 17:12:00,76.3,62.3,29.87,ESE,107,6.0,0.0,62,0.00,,BKN080,0.04,VWS V14.01,2013-09-03 00:12:00,
2013-09-02 17:17:00,76.7,62.2,29.87,NE,46,2.0,0.0,61,0.00,,BKN080,0.04,VWS V14.01,2013-09-03 00:17:00,
2013-09-02 17:22:00,77.1,62.6,29.87,ESE,120,2.0,0.0,61,0.00,,BKN080,0.04,VWS V14.01,2013-09-03 00:22:00,
2013-09-02 17:27:00,77.4,62.9,29.87,ESE,113,5.0,0.0,61,0.00,,SCT080,0.04,VWS V14.01,2013-09-03 00:27:00,
2013-09-02 17:32:00,77.2,62.2,29.87,ESE,110,3.0,0.0,60,0.00,,SCT080,0.04,VWS V14.01,2013-09-03 00:32:00,
2013-09-02 17:37:00,77.5,63.5,29.87,ESE,110,4.0,0.0,62,0.00,,SCT080,0.04,VWS V14.01,2013-09-03 00:37:00,
2013-09-02 17:42:00,77.6,64.0,29.87,East,85,4.0,0.0,63,0.00,,SCT080,0.04,VWS V14.01,2013-09-03 00:42:00,
2013-09-02 17:47:00,76.8,63.7,29.88,ESE,119,2.0,0.0,64,0.00,,BKN080,0.04,VWS V14.01,2013-09-03 00:47:00,
2013-09-02 17:52:00,75.8,64.1,29.87,ESE,106,6.0,0.0,67,0.00,,BKN080,0.04,VWS V14.01,2013-09-03 00:52:00,
2013-09-02 17:57:00,75.1,63.8,29.87,ESE,115,6.0,0.0,68,0.00,,BKN080,0.04,VWS V14.01,2013-09-03 00:57:00,
2013-09-02 18:02:00,74.8,64.0,29.87,ESE,121,13.0,0.0,69,0.00,,BKN080,0.04,VWS V14.01,2013-09-03 01:02:00,
2013-09-02 18:07:00,74.4,63.6,29.87,ENE,75,3.0,0.0,69,0.00,,BKN080,0.04,VWS V14.01,2013-09-03 01:07:00,
2013-09-02 18:12:00,74.1,63.7,29.87,SE,126,5.0,0.0,70,0.00,,BKN080,0.04,VWS V14.01,2013-09-03 01:12:00,
2013-09-02 18:17:00,73.9,63.9,29.87,East,84,2.0,0.0,71,0.00,,BKN080,0.04,VWS V14.01,2013-09-03 01:17:00,
2013-09-02 18:22:00,73.8,63.4,29.87,ENE,70,9.0,0.0,70,0.00,,BKN080,0.04,VWS V14.01,2013-09-03 01:22:00,
2013-09-02 18:27:00,73.6,63.2,29.87,SE,145,3.0,0.0,70,0.00,,BKN080,0.04,VWS V14.01,2013-09-03 01:27:00,
2013-09-02 18:32:00,73.2,62.8,29.87,ESE,116,3.0,0.0,70,0.00,,BKN080,0.04,VWS V14.01,2013-09-03 01:32:00,
2013-09-02 18:37:00,72.9,62.5,29.88,East,91,2.0,0.0,70,0.00,,BKN080,0.04,VWS V14.01,2013-09-03 01:37:00,
2013-09-02 18:42:00,72.5,62.6,29.88,SE,132,6.0,0.0,71,0.00,,BKN080,0.04,VWS V14.01,2013-09-03 01:42:00,
2013-09-02 18:47:00,72.2,62.7,29.88,East,98,5.0,0.0,72,0.00,,SCT080,0.04,VWS V14.01,2013-09-03 01:47:00,
2013-09-02 18:52:00,71.9,62.4,29.88,ESE,107,2.0,0.0,72,0.00,,SCT080,0.04,VWS V14.01,2013-09-03 01:52:00,
2013-09-02 18:57:00,71.6,62.1,29.88,East,85,4.0,0.0,72,0.00,,SCT080,0.04,VWS V14.01,2013-09-03 01:57:00,
2013-09-02 19:02:00,71.4,62.3,29.88,ESE,102,2.0,0.0,73,0.00,,SCT080,0.04,VWS V14.01,2013-09-03 02:02:00,
2013-09-02 19:07:00,71.2,62.5,29.88,East,96,1.0,0.0,74,0.00,,BKN080,0.04,VWS V14.01,2013-09-03 02:07:00,
2013-09-02 19:12:00,70.9,62.2,29.89,ESE,109,0.0,0.0,74,0.00,,BKN080,0.04,VWS V14.01,2013-09-03 02:12:00,
2013-09-02 19:17:00,70.7,62.4,29.89,South,175,0.0,0.0,75,0.00,,BKN080,0.04,VWS V14.01,2013-09-03 02:17:00,
2013-09-02 19:22:00,70.7,62.4,29.88,East,90,0.0,0.0,75,0.00,,BKN080,0.04,VWS V14.01,2013-09-03 02:22:00,
2013-09-02 19:27:00,70.7,62.4,29.89,ESE,107,1.0,0.0,75,0.00,,BKN080,0.04,VWS V14.01,2013-09-03 02:27:00,
2013-09-02 19:32:00,70.5,62.2,29.89,ESE,109,0.0,0.0,75,0.00,,BKN080,0.04,VWS V14.01,2013-09-03 02:32:00,
2013-09-02 19:37:00,70.2,62.3,29.89,ENE,73,0.0,0.0,76,0.00,,BKN080,0.04,VWS V14.01,2013-09-03 02:37:00,
2013-09-02 19:42:00,70.0,62.1,29.89,ESE,115,1.0,0.0,76,0.00,,BKN080,0.04,VWS V14.01,2013-09-03 02:42:00,
2013-09-02 19:47:00,69.9,62.0,29.89,ESE,114,0.0,0.0,76,0.00,,OVC080,0.04,VWS V14.01,2013-09-03 02:47:00,
2013-09-02 19:52:00,69.6,62.1,29.89,ESE,115,0.0,0.0,77,0.00,,OVC080,0.04,VWS V14.01,2013-09-03 02:52:00,
2013-09-02 19:57:00,69.4,61.9,29.89,East,85,2.0,0.0,77,0.00,,OVC080,0.04,VWS V14.01,2013-09-03 02:57:00,
2013-09-02 20:02:00,69.4,61.9,29.89,East,84,1.0,0.0,77,0.00,,OVC080,0.04,VWS V14.01,2013-09-03 03:02:00,
2013-09-02 20:07:00,69.2,61.3,29.90,ESE,117,1.0,0.0,76,0.00,,OVC080,0.04,VWS V14.01,2013-09-03 03:07:00,
2013-09-02 20:12:00,69.2,61.3,29.90,East,101,0.0,0.0,76,0.00,,OVC080,0.04,VWS V14.01,2013-09-03 03:12:00,
2013-09-02 20:17:00,69.1,61.6,29.89,ESE,115,4.0,0.0,77,0.00,,OVC080,0.04,VWS V14.01,2013-09-03 03:17:00,
2013-09-02 20:22:00,69.0,61.5,29.89,ESE,118,2.0,0.0,77,0.00,,OVC080,0.04,VWS V14.01,2013-09-03 03:22:00,
2013-09-02 20:27:00,68.8,61.3,29.89,ESE,115,1.0,0.0,77,0.00,,OVC080,0.04,VWS V14.01,2013-09-03 03:27:00,
2013-09-02 20:32:00,68.6,61.5,29.90,ESE,117,0.0,0.0,78,0.00,,OVC080,0.04,VWS V14.01,2013-09-03 03:32:00,
2013-09-02 20:37:00,68.4,61.6,29.90,ESE,117,0.0,0.0,79,0.00,,OVC080,0.04,VWS V14.01,2013-09-03 03:37:00,
2013-09-02 20:42:00,68.3,61.5,29.91,ESE,110,0.0,0.0,79,0.00,,OVC080,0.04,VWS V14.01,2013-09-03 03:42:00,
2013-09-02 20:47:00,68.2,61.5,29.91,ESE,110,0.0,0.0,79,0.00,,OVC080,0.04,VWS V14.01,2013-09-03 03:47:00,
2013-09-02 20:52:00,68.0,61.2,29.91,ESE,110,0.0,0.0,79,0.00,,OVC080,0.04,VWS V14.01,2013-09-03 03:52:00,
2013-09-02 20:57:00,67.9,61.5,29.91,ESE,110,0.0,0.0,80,0.00,,OVC080,0.04,VWS V14.01,2013-09-03 03:57:00,
2013-09-02 21:01:00,67.8,61.8,29.91,ESE,111,0.0,0.0,81,0.00,,OVC080,0.04,VWS V14.01,2013-09-03 04:01:00,
2013-09-02 21:06:00,67.7,61.7,29.92,ESE,110,0.0,0.0,81,0.00,,OVC080,0.04,VWS V14.01,2013-09-03 04:06:00,
2013-09-02 21:11:00,67.7,62.0,29.92,ESE,111,0.0,0.0,82,0.00,,OVC080,0.04,VWS V14.01,2013-09-03 04:11:00,
2013-09-02 21:16:00,67.6,61.9,29.92,ESE,110,0.0,0.0,82,0.00,,OVC080,0.04,VWS V14.01,2013-09-03 04:16:00,
2013-09-02 21:21:00,67.6,61.6,29.92,ESE,102,0.0,0.0,81,0.00,,OVC080,0.04,VWS V14.01,2013-09-03 04:21:00,
2013-09-02 21:26:00,67.7,61.7,29.91,ESE,102,0.0,0.0,81,0.00,,OVC080,0.04,VWS V14.01,2013-09-03 04:26:00,
2013-09-02 21:31:00,67.6,61.6,29.92,ESE,116,2.0,0.0,81,0.00,,OVC080,0.04,VWS V14.01,2013-09-03 04:31:00,
2013-09-02 21:36:00,67.6,61.6,29.92,ESE,116,0.0,0.0,81,0.00,,OVC080,0.04,VWS V14.01,2013-09-03 04:36:00,
2013-09-02 21:41:00,67.6,61.6,29.92,ESE,115,0.0,0.0,81,0.00,,OVC080,0.04,VWS V14.01,2013-09-03 04:41:00,
2013-09-02 21:46:00,67.5,61.5,29.92,ESE,118,0.0,0.0,81,0.00,,OVC070,0.04,VWS V14.01,2013-09-03 04:46:00,
2013-09-02 21:51:00,67.4,61.7,29.92,ESE,115,0.0,0.0,82,0.00,,OVC070,0.04,VWS V14.01,2013-09-03 04:51:00,
2013-09-02 21:56:00,67.3,61.6,29.92,ESE,115,0.0,0.0,82,0.00,,OVC070,0.04,VWS V14.01,2013-09-03 04:56:00,
2013-09-02 22:01:00,67.2,61.5,29.93,ESE,116,0.0,0.0,82,0.00,,OVC070,0.04,VWS V14.01,2013-09-03 05:01:00,
2013-09-02 22:06:00,67.1,61.4,29.93,ESE,116,0.0,0.0,82,0.00,,OVC085,0.04,VWS V14.01,2013-09-03 05:06:00,
2013-09-02 22:11:00,67.1,61.4,29.93,ESE,116,0.0,0.0,82,0.00,,OVC085,0.04,VWS V14.01,2013-09-03 05:11:00,
2013-09-02 22:16:00,66.9,61.2,29.93,SE,134,0.0,0.0,82,0.00,,OVC085,0.04,VWS V14.01,2013-09-03 05:16:00,
2013-09-02 22:21:00,66.8,61.1,29.93,SE,134,0.0,0.0,82,0.00,,OVC085,0.04,VWS V14.01,2013-09-03 05:21:00,
2013-09-02 22:26:00,66.8,61.5,29.93,SE,134,0.0,0.0,83,0.00,,OVC080,0.04,VWS V14.01,2013-09-03 05:26:00,
2013-09-02 22:31:00,66.7,61.0,29.93,SE,134,0.0,0.0,82,0.00,,OVC080,0.04,VWS V14.01,2013-09-03 05:31:00,
2013-09-02 22:36:00,66.6,60.9,29.92,SE,134,0.0,0.0,82,0.00,,OVC080,0.04,VWS V14.01,2013-09-03 05:36:00,
2013-09-02 22:41:00,66.4,60.7,29.92,SE,134,0.0,0.0,82,0.00,,OVC080,0.04,VWS V14.01,2013-09-03 05:41:00,
2013-09-02 22:46:00,66.3,61.0,29.92,SE,134,0.0,0.0,83,0.00,,OVC080,0.04,VWS V14.01,2013-09-03 05:46:00,
2013-09-02 22:51:00,66.0,60.7,29.92,SE,134,0.0,0.0,83,0.00,,OVC080,0.04,VWS V14.01,2013-09-03 05:51:00,
2013-09-02 22:56:00,65.7,60.7,29.93,SE,134,0.0,0.0,84,0.00,,OVC080,0.04,VWS V14.01,2013-09-03 05:56:00,
2013-09-02 23:01:00,65.6,60.6,29.92,NE,48,1.0,0.0,84,0.00,,OVC080,0.04,VWS V14.01,2013-09-03 06:01:00,
2013-09-02 23:06:00,65.5,60.5,29.92,ENE,69,0.0,0.0,84,0.00,,BKN080,0.04,VWS V14.01,2013-09-03 06:06:00,
2013-09-02 23:11:00,65.3,60.3,29.92,ENE,69,0.0,0.0,84,0.00,,BKN080,0.04,VWS V14.01,2013-09-03 06:11:00,
2013-09-02 23:16:00,65.0,60.4,29.93,ENE,70,0.0,0.0,85,0.00,,BKN080,0.04,VWS V14.01,2013-09-03 06:16:00,
2013-09-02 23:21:00,65.0,60.4,29.93,ENE,69,1.0,0.0,85,0.00,,BKN080,0.04,VWS V14.01,2013-09-03 06:21:00,
2013-09-02 23:26:00,64.9,60.3,29.92,ENE,67,0.0,0.0,85,0.00,,BKN090,0.04,VWS V14.01,2013-09-03 06:26:00,
2013-09-02 23:31:00,64.7,60.1,29.93,SE,130,0.0,0.0,85,0.00,,BKN090,0.04,VWS V14.01,2013-09-03 06:31:00,
2013-09-02 23:36:00,64.3,60.0,29.92,SE,130,0.0,0.0,86,0.00,,BKN090,0.04,VWS V14.01,2013-09-03 06:36:00,
2013-09-02 23:41:00,64.0,60.1,29.93,SE,130,0.0,0.0,87,0.00,,BKN090,0.04,VWS V14.01,2013-09-03 06:41:00,
2013-09-02 23:46:00,63.7,59.8,29.93,SE,130,0.0,0.0,87,0.00,,BKN090,0.04,VWS V14.01,2013-09-03 06:46:00,
2013-09-02 23:51:00,63.5,59.9,29.93,SE,130,0.0,0.0,88,0.00,,BKN090,0.04,VWS V14.01,2013-09-03 06:51:00,
2013-09-02 23:56:00,63.2,59.6,29.92,SE,131,0.0,0.0,88,0.00,,BKN090,0.04,VWS V14.01,2013-09-03 06:56:00,